FW5762 Weather Reports


Display with metric or nautical units.
time (UTC)temp
F
wind
direction
speed
MPH
gust
MPH
rain 1hr
in
rain 24hr
in
rain mn
in
humidity
%
barometer
mb
20191022164528 73 229 7.0 11.0 0.00 0.00 0.00 73 1012.1
20191022164427 73 82 4.0 11.0 0.00 0.00 0.00 73 1011.8
20191022164323 73 134 5.0 11.0 0.00 0.00 0.00 73 1012.0
20191022164213 73 97 5.0 11.0 0.00 0.00 0.00 73 1012.2
20191022164111 73 114 4.0 11.0 0.00 0.00 0.00 73 1012.0
20191022164008 73 95 5.0 10.0 0.00 0.00 0.00 73 1012.3
20191022163903 73 71 4.0 10.0 0.00 0.00 0.00 73 1012.3
20191022163801 73 82 8.0 10.0 0.00 0.00 0.00 73 1012.2
20191022163651 73 62 1.0 9.0 0.00 0.00 0.00 73 1012.2
20191022163603 73 98 2.0 10.0 0.00 0.00 0.00 73 1012.1
20191022163548 73 121 3.0 11.0 0.00 0.00 0.00 73 1012.1
20191022163445 73 75 2.0 11.0 0.00 0.00 0.00 73 1012.0
20191022163341 73 105 5.0 11.0 0.00 0.00 0.00 73 1012.2
20191022163239 73 103 4.0 11.0 0.00 0.00 0.00 73 1012.1
20191022163136 73 67 5.0 11.0 0.00 0.00 0.00 73 1012.2
20191022163102 73 73 5.0 11.0 0.00 0.00 0.00 73 1012.1
20191022163033 73 136 6.0 11.0 0.00 0.00 0.00 73 1012.1
20191022162929 73 82 5.0 11.0 0.00 0.00 0.00 73 1012.2
20191022162820 73 40 3.0 14.0 0.00 0.00 0.00 73 1012.2
20191022162716 73 108 6.0 14.0 0.00 0.00 0.00 73 1012.0
20191022162614 73 125 6.0 14.0 0.00 0.00 0.00 73 1012.4
20191022162601 73 83 4.0 14.0 0.00 0.00 0.00 73 1012.3
20191022162511 73 108 5.0 14.0 0.00 0.00 0.00 73 1012.3
20191022162408 73 134 6.0 14.0 0.00 0.00 0.00 73 1012.4
20191022162305 73 115 8.0 14.0 0.00 0.00 0.00 73 1012.2
20191022162202 73 42 4.0 16.0 0.00 0.00 0.00 73 1012.1
20191022162102 73 134 5.0 16.0 0.00 0.00 0.00 73 1012.3
20191022161951 73 104 5.0 16.0 0.00 0.00 0.00 73 1012.3
20191022161845 73 32 7.0 16.0 0.00 0.00 0.00 73 1012.5
20191022161742 73 121 6.0 16.0 0.00 0.00 0.00 73 1012.5
20191022161638 73 63 6.0 16.0 0.00 0.00 0.00 73 1012.1
20191022161551 73 128 4.0 16.0 0.00 0.00 0.00 73 1012.3
20191022161536 73 70 4.0 16.0 0.00 0.00 0.00 73 1012.3
20191022161433 73 107 5.0 16.0 0.00 0.00 0.00 73 1012.4
20191022161330 73 106 5.0 16.0 0.00 0.00 0.00 73 1012.3
20191022161226 73 79 11.0 16.0 0.00 0.00 0.00 73 1012.3
20191022161117 73 125 5.0 16.0 0.00 0.00 0.00 73 1012.4
20191022161050 73 103 4.0 16.0 0.00 0.00 0.00 73 1012.3
20191022161013 73 142 5.0 16.0 0.00 0.00 0.00 73 1012.3
20191022160910 73 90 7.0 16.0 0.00 0.00 0.00 73 1012.3
20191022160808 73 81 6.0 16.0 0.00 0.00 0.00 73 1012.5
20191022160705 73 68 6.0 16.0 0.00 0.00 0.00 73 1012.5
20191022160601 73 114 8.0 16.0 0.00 0.00 0.00 72 1012.3
20191022160541 73 124 9.0 16.0 0.00 0.00 0.00 72 1012.3
20191022160458 73 58 5.0 16.0 0.00 0.00 0.00 72 1012.5
20191022160349 73 67 6.0 16.0 0.00 0.00 0.00 72 1012.4
20191022160245 73 31 7.0 16.0 0.00 0.00 0.00 72 1012.4
20191022160143 73 120 12.0 16.0 0.00 0.00 0.00 72 1012.5
20191022160042 73 101 3.0 15.0 0.00 0.00 0.00 72 1012.4
20191022155938 73 113 8.0 15.0 0.00 0.00 0.00 72 1012.4
20191022155833 73 81 3.0 15.0 0.00 0.00 0.00 72 1012.6
20191022155723 73 78 11.0 15.0 0.00 0.00 0.00 72 1012.5
20191022155620 73 177 4.0 11.0 0.00 0.00 0.00 72 1012.3
20191022155516 73 49 4.0 11.0 0.00 0.00 0.00 72 1012.6
20191022155414 73 99 8.0 15.0 0.00 0.00 0.00 72 1012.3
20191022155311 73 72 4.0 15.0 0.00 0.00 0.00 72 1012.6
20191022155207 73 104 6.0 15.0 0.00 0.00 0.00 72 1012.5
20191022155103 73 91 6.0 18.0 0.00 0.00 0.00 72 1012.7
20191022155030 73 350 3.0 18.0 0.00 0.00 0.00 72 1012.4
20191022155000 73 116 9.0 18.0 0.00 0.00 0.00 72 1012.5
20191022154858 73 155 4.0 18.0 0.00 0.00 0.00 72 1012.6
20191022154754 73 68 5.0 22.0 0.00 0.00 0.00 72 1012.7
20191022154644 73 69 6.0 22.0 0.00 0.00 0.00 72 1012.4
20191022154541 73 6 4.0 22.0 0.00 0.00 0.00 72 1012.6
20191022154528 73 90 6.0 22.0 0.00 0.00 0.00 72 1012.6
20191022154439 73 83 7.0 22.0 0.00 0.00 0.00 72 1012.3
20191022154335 73 84 6.0 22.0 0.00 0.00 0.00 72 1012.5
20191022154231 73 70 10.0 22.0 0.00 0.00 0.00 72 1012.4
20191022154129 73 141 7.0 22.0 0.00 0.00 0.00 72 1012.5
20191022154028 73 125 12.0 22.0 0.00 0.00 0.00 72 1012.5
20191022153925 73 111 5.0 22.0 0.00 0.00 0.00 72 1012.5
20191022153812 73 143 7.0 15.0 0.00 0.00 0.00 71 1012.4
20191022153710 73 74 4.0 13.0 0.00 0.00 0.00 71 1012.3
20191022153606 73 99 4.0 10.0 0.00 0.00 0.00 71 1012.8
20191022153517 73 121 4.0 10.0 0.00 0.00 0.00 71 1012.8
20191022153503 73 121 4.0 10.0 0.00 0.00 0.00 71 1012.3
20191022153400 73 136 6.0 10.0 0.00 0.00 0.00 71 1012.4
20191022153256 73 72 4.0 10.0 0.00 0.00 0.00 71 1012.6
20191022153154 73 127 3.0 10.0 0.00 0.00 0.00 71 1012.6
20191022153050 73 38 6.0 10.0 0.00 0.00 0.00 71 1012.6
20191022153014 73 96 5.0 11.0 0.00 0.00 0.00 71 1012.6
20191022152945 73 54 3.0 11.0 0.00 0.00 0.00 71 1012.7
20191022152841 73 111 3.0 11.0 0.00 0.00 0.00 71 1012.5
20191022152724 73 100 4.0 11.0 0.00 0.00 0.00 71 1012.6
20191022152613 73 60 5.0 11.0 0.00 0.00 0.00 71 1012.7
20191022152514 73 108 6.0 11.0 0.00 0.00 0.00 71 1012.7
20191022152408 73 80 4.0 11.0 0.00 0.00 0.00 71 1012.5
20191022152305 73 125 4.0 11.0 0.00 0.00 0.00 71 1012.5
20191022152202 73 173 4.0 11.0 0.00 0.00 0.00 71 1012.4
20191022152059 73 115 7.0 11.0 0.00 0.00 0.00 71 1012.6
20191022152010 73 130 3.0 11.0 0.00 0.00 0.00 70 1012.6
20191022151949 73 130 3.0 11.0 0.00 0.00 0.00 70 1012.3
20191022151844 73 144 5.0 11.0 0.00 0.00 0.00 70 1012.7
20191022151741 73 136 8.0 11.0 0.00 0.00 0.00 70 1012.6
20191022151639 73 66 4.0 11.0 0.00 0.00 0.00 70 1012.4
20191022151535 73 58 4.0 14.0 0.00 0.00 0.00 70 1012.4
20191022151501 73 33 3.0 14.0 0.00 0.00 0.00 70 1012.2
20191022151433 73 70 5.0 14.0 0.00 0.00 0.00 70 1012.2
20191022151328 73 106 4.0 14.0 0.00 0.00 0.00 70 1012.5
20191022151225 73 115 8.0 14.0 0.00 0.00 0.00 70 1012.6
20191022151123 73 102 5.0 14.0 0.00 0.00 0.00 70 1012.5
20191022151013 73 89 7.0 14.0 0.00 0.00 0.00 70 1012.7
20191022151001 73 121 9.0 14.0 0.00 0.00 0.00 70 1012.7
20191022150909 73 343 3.0 14.0 0.00 0.00 0.00 70 1012.7
20191022150813 73 109 5.0 14.0 0.00 0.00 0.00 70 1012.5
20191022150704 73 134 5.0 14.0 0.00 0.00 0.00 70 1012.5
20191022150601 73 113 6.0 14.0 0.00 0.00 0.00 70 1012.4
20191022150500 73 120 4.0 13.0 0.00 0.00 0.00 70 1012.6
20191022150354 73 140 4.0 13.0 0.00 0.00 0.00 70 1012.6
20191022150244 73 63 5.0 13.0 0.00 0.00 0.00 70 1012.7
20191022150142 73 91 6.0 13.0 0.00 0.00 0.00 70 1012.7
20191022150038 73 44 4.0 13.0 0.00 0.00 0.00 70 1012.7
20191022145956 73 77 4.0 13.0 0.00 0.00 0.00 70 1012.6
20191022145935 73 87 3.0 13.0 0.00 0.00 0.00 70 1012.6
20191022145832 73 56 6.0 13.0 0.00 0.00 0.00 70 1012.8
20191022145729 73 113 5.0 13.0 0.00 0.00 0.00 70 1012.6
20191022145625 73 97 6.0 13.0 0.00 0.00 0.00 69 1012.7
20191022145516 73 70 9.0 13.0 0.00 0.00 0.00 69 1012.7
20191022145455 73 113 7.0 13.0 0.00 0.00 0.00 69 1012.8
20191022145415 73 132 11.0 13.0 0.00 0.00 0.00 69 1012.8
20191022145310 73 141 5.0 11.0 0.00 0.00 0.00 69 1012.7
20191022145206 73 88 5.0 11.0 0.00 0.00 0.00 69 1012.7
20191022145104 73 61 9.0 14.0 0.00 0.00 0.00 69 1012.9
20191022145002 73 114 4.0 14.0 0.00 0.00 0.00 69 1012.8
20191022144955 73 113 3.0 14.0 0.00 0.00 0.00 69 1012.8
20191022144857 73 106 2.0 14.0 0.00 0.00 0.00 69 1012.7
20191022144757 73 80 4.0 14.0 0.00 0.00 0.00 69 1012.6
20191022144645 73 108 6.0 14.0 0.00 0.00 0.00 69 1012.7
20191022144542 73 80 5.0 14.0 0.00 0.00 0.00 69 1012.8
20191022144439 73 356 5.0 14.0 0.00 0.00 0.00 69 1012.8
20191022144336 73 99 5.0 14.0 0.00 0.00 0.00 69 1012.6
20191022144232 73 131 6.0 14.0 0.00 0.00 0.00 69 1012.7
20191022144130 73 118 10.0 14.0 0.00 0.00 0.00 69 1012.6
20191022144019 73 107 5.0 10.0 0.00 0.00 0.00 69 1012.8
20191022143954 73 123 6.0 11.0 0.00 0.00 0.00 69 1012.8
20191022143917 73 85 5.0 11.0 0.00 0.00 0.00 69 1012.8
20191022143814 73 84 4.0 11.0 0.00 0.00 0.00 69 1012.8
20191022143711 73 98 3.0 11.0 0.00 0.00 0.00 69 1012.6
20191022143607 73 55 5.0 11.0 0.00 0.00 0.00 69 1012.8
20191022143505 73 50 4.0 11.0 0.00 0.00 0.00 69 1013.0
20191022143451 73 50 4.0 11.0 0.00 0.00 0.00 69 1013.0
20191022143401 73 95 4.0 11.0 0.00 0.00 0.00 69 1012.6
20191022143252 73 129 4.0 11.0 0.00 0.00 0.00 69 1012.6
20191022143149 73 128 8.0 11.0 0.00 0.00 0.00 69 1012.8
20191022143046 73 114 2.0 11.0 0.00 0.00 0.00 69 1012.7
20191022142946 73 105 6.0 11.0 0.00 0.00 0.00 69 1012.7
20191022142835 73 119 5.0 11.0 0.00 0.00 0.00 69 1012.7
20191022142730 73 144 7.0 11.0 0.00 0.00 0.00 69 1012.8
20191022142627 73 82 4.0 11.0 0.00 0.00 0.00 69 1012.8
20191022142524 73 65 5.0 11.0 0.00 0.00 0.00 69 1012.8
20191022142421 73 41 4.0 11.0 0.00 0.00 0.00 69 1012.9
20191022142317 73 63 4.0 13.0 0.00 0.00 0.00 69 1012.7
20191022142215 73 114 6.0 13.0 0.00 0.00 0.00 69 1012.9
20191022142112 73 132 8.0 13.0 0.00 0.00 0.00 69 1012.9
20191022142008 73 120 7.0 13.0 0.00 0.00 0.00 69 1013.0
20191022141934 73 118 6.0 13.0 0.00 0.00 0.00 69 1012.9
20191022141906 73 75 6.0 13.0 0.00 0.00 0.00 69 1012.8
20191022141756 73 92 4.0 13.0 0.00 0.00 0.00 69 1012.9
20191022141653 73 151 5.0 13.0 0.00 0.00 0.00 69 1012.7
20191022141550 73 107 8.0 13.0 0.00 0.00 0.00 69 1012.8
20191022141446 73 135 4.0 13.0 0.00 0.00 0.00 69 1012.8
20191022141427 73 103 7.0 13.0 0.00 0.00 0.00 69 1012.8
20191022141343 73 151 9.0 14.0 0.00 0.00 0.00 69 1012.9
20191022141241 73 99 2.0 14.0 0.00 0.00 0.00 69 1012.6
20191022141137 73 92 4.0 14.0 0.00 0.00 0.00 69 1012.8
20191022141034 73 86 5.0 14.0 0.00 0.00 0.00 69 1012.8
20191022140927 73 95 7.0 14.0 0.00 0.00 0.00 69 1013.1
20191022140821 73 90 3.0 14.0 0.00 0.00 0.00 69 1013.0
20191022140719 73 111 4.0 14.0 0.00 0.00 0.00 69 1012.9
20191022140616 73 92 4.0 14.0 0.00 0.00 0.00 69 1012.9
20191022140513 73 72 5.0 14.0 0.00 0.00 0.00 69 1012.7
20191022140410 73 76 8.0 14.0 0.00 0.00 0.00 69 1012.6
20191022140306 73 136 5.0 13.0 0.00 0.00 0.00 69 1012.9
20191022140157 73 131 5.0 13.0 0.00 0.00 0.00 69 1013.0
20191022140054 73 67 7.0 13.0 0.00 0.00 0.00 69 1012.7
20191022135951 73 163 3.0 13.0 0.00 0.00 0.00 69 1012.8
20191022135917 73 133 4.0 13.0 0.00 0.00 0.00 69 1012.8
20191022135848 73 144 4.0 13.0 0.00 0.00 0.00 69 1012.8
20191022135744 73 75 5.0 13.0 0.00 0.00 0.00 69 1012.6
20191022135641 73 116 6.0 13.0 0.00 0.00 0.00 69 1012.9
20191022135532 73 75 7.0 13.0 0.00 0.00 0.00 69 1012.9
20191022135428 73 78 5.0 13.0 0.00 0.00 0.00 69 1012.9
20191022135408 73 80 2.0 13.0 0.00 0.00 0.00 69 1012.9
20191022135325 73 114 7.0 13.0 0.00 0.00 0.00 69 1013.0
20191022135223 73 87 5.0 13.0 0.00 0.00 0.00 69 1012.8
20191022135120 73 83 3.0 13.0 0.00 0.00 0.00 69 1012.9
20191022135009 73 94 3.0 13.0 0.00 0.00 0.00 69 1012.9
20191022134910 73 93 7.0 13.0 0.00 0.00 0.00 69 1012.9
20191022134804 73 89 7.0 10.0 0.00 0.00 0.00 69 1012.9
20191022134701 73 105 6.0 10.0 0.00 0.00 0.00 69 1012.9
20191022134558 73 69 5.0 10.0 0.00 0.00 0.00 69 1012.9
20191022134455 73 100 6.0 10.0 0.00 0.00 0.00 69 1013.1
20191022134407 73 104 5.0 16.0 0.00 0.00 0.00 69 1012.7
20191022134352 73 84 7.0 16.0 0.00 0.00 0.00 69 1012.7
20191022134249 73 117 6.0 16.0 0.00 0.00 0.00 69 1013.0
20191022134146 73 111 6.0 16.0 0.00 0.00 0.00 69 1012.8
20191022134043 73 91 6.0 16.0 0.00 0.00 0.00 69 1012.9
20191022133917 73 77 6.0 16.0 0.00 0.00 0.00 69 1012.9
20191022133902 73 126 6.0 16.0 0.00 0.00 0.00 69 1013.3
20191022133815 73 135 6.0 16.0 0.00 0.00 0.00 69 1013.3
20191022133709 73 108 4.0 16.0 0.00 0.00 0.00 69 1013.0
20191022133606 73 110 5.0 16.0 0.00 0.00 0.00 69 1013.0
20191022133504 73 118 6.0 16.0 0.00 0.00 0.00 69 1013.1
20191022133403 73 99 4.0 13.0 0.00 0.00 0.00 69 1012.9
20191022133258 73 94 5.0 13.0 0.00 0.00 0.00 69 1013.1
20191022133148 73 114 5.0 14.0 0.00 0.00 0.00 69 1013.0
20191022133045 73 99 4.0 14.0 0.00 0.00 0.00 69 1012.9
20191022132942 73 101 6.0 14.0 0.00 0.00 0.00 69 1013.0
20191022132901 73 120 4.0 14.0 0.00 0.00 0.00 69 1012.8
20191022132839 73 108 4.0 14.0 0.00 0.00 0.00 69 1012.8
20191022132736 73 69 8.0 14.0 0.00 0.00 0.00 69 1012.8
20191022132633 73 89 4.0 14.0 0.00 0.00 0.00 69 1013.2
20191022132529 73 74 5.0 14.0 0.00 0.00 0.00 69 1012.7
20191022132419 73 143 4.0 14.0 0.00 0.00 0.00 69 1012.8
20191022132359 73 80 4.0 14.0 0.00 0.00 0.00 69 1013.0
20191022132310 73 92 4.0 14.0 0.00 0.00 0.00 69 1013.0
20191022132207 73 53 5.0 13.0 0.00 0.00 0.00 69 1012.9
20191022132104 73 156 4.0 13.0 0.00 0.00 0.00 69 1013.0
20191022132000 73 141 9.0 13.0 0.00 0.00 0.00 69 1012.9
20191022131859 73 79 8.0 13.0 0.00 0.00 0.00 69 1012.9
20191022131755 73 134 3.0 13.0 0.00 0.00 0.00 69 1013.2
20191022131651 73 63 4.0 13.0 0.00 0.00 0.00 69 1013.0
20191022131549 73 94 9.0 13.0 0.00 0.00 0.00 69 1013.1
20191022131446 73 72 7.0 18.0 0.00 0.00 0.00 69 1013.0
20191022131343 73 95 3.0 18.0 0.00 0.00 0.00 69 1012.7
20191022131240 73 110 3.0 18.0 0.00 0.00 0.00 69 1013.0
20191022131136 73 57 7.0 18.0 0.00 0.00 0.00 68 1013.0
20191022131026 73 128 7.0 18.0 0.00 0.00 0.00 68 1012.8
20191022130924 73 55 4.0 18.0 0.00 0.00 0.00 68 1012.8
20191022130857 73 87 8.0 18.0 0.00 0.00 0.00 68 1012.9
20191022130821 73 70 8.0 18.0 0.00 0.00 0.00 68 1012.9
20191022130718 73 75 8.0 18.0 0.00 0.00 0.00 68 1013.0
20191022130615 73 119 6.0 18.0 0.00 0.00 0.00 68 1012.8
20191022130512 73 347 11.0 18.0 0.00 0.00 0.00 68 1012.8
20191022130409 73 128 4.0 13.0 0.00 0.00 0.00 68 1012.8
20191022130356 73 83 3.0 13.0 0.00 0.00 0.00 68 1012.9
20191022130305 73 127 4.0 17.0 0.00 0.00 0.00 68 1012.9
20191022130156 73 135 7.0 17.0 0.00 0.00 0.00 68 1013.1
20191022130053 73 27 4.0 17.0 0.00 0.00 0.00 68 1012.9
20191022125950 73 101 7.0 17.0 0.00 0.00 0.00 68 1012.9
20191022125846 73 117 6.0 17.0 0.00 0.00 0.00 68 1012.9
20191022125743 73 61 3.0 17.0 0.00 0.00 0.00 68 1013.1
20191022125633 73 99 9.0 17.0 0.00 0.00 0.00 68 1013.1
20191022125530 73 125 5.0 17.0 0.00 0.00 0.00 68 1013.0
20191022125426 73 52 4.0 17.0 0.00 0.00 0.00 68 1013.1
20191022125353 73 138 6.0 17.0 0.00 0.00 0.00 68 1012.9
20191022125324 73 131 11.0 15.0 0.00 0.00 0.00 68 1012.9
20191022125221 73 104 4.0 15.0 0.00 0.00 0.00 68 1013.0
20191022125118 73 89 5.0 15.0 0.00 0.00 0.00 68 1012.9
20191022125015 73 174 4.0 15.0 0.00 0.00 0.00 68 1013.3
20191022124911 73 134 5.0 15.0 0.00 0.00 0.00 68 1013.0
20191022124851 73 134 6.0 15.0 0.00 0.00 0.00 68 1013.0
20191022124808 73 74 5.0 15.0 0.00 0.00 0.00 68 1013.0
20191022124706 73 118 3.0 13.0 0.00 0.00 0.00 68 1013.0
20191022124556 73 87 3.0 14.0 0.00 0.00 0.00 68 1013.2
20191022124453 73 160 5.0 14.0 0.00 0.00 0.00 68 1013.2
20191022124352 73 46 6.0 14.0 0.00 0.00 0.00 68 1012.9
20191022124247 73 81 9.0 15.0 0.00 0.00 0.00 68 1013.1
20191022124146 73 143 12.0 15.0 0.00 0.00 0.00 68 1013.0
20191022124040 73 23 6.0 15.0 0.00 0.00 0.00 68 1012.9
20191022123931 73 73 7.0 15.0 0.00 0.00 0.00 68 1013.0
20191022123850 73 78 3.0 15.0 0.00 0.00 0.00 68 1013.1
20191022123827 73 41 4.0 15.0 0.00 0.00 0.00 68 1013.1
20191022123725 73 100 9.0 15.0 0.00 0.00 0.00 68 1013.2
20191022123615 73 76 5.0 15.0 0.00 0.00 0.00 68 1013.2
20191022123512 73 99 4.0 15.0 0.00 0.00 0.00 68 1013.1
20191022123409 73 100 4.0 15.0 0.00 0.00 0.00 68 1013.1
20191022123349 73 85 4.0 15.0 0.00 0.00 0.00 68 1013.1
20191022123306 73 116 11.0 15.0 0.00 0.00 0.00 68 1013.1
20191022123202 73 146 8.0 14.0 0.00 0.00 0.00 68 1013.0
20191022123100 73 97 5.0 14.0 0.00 0.00 0.00 68 1013.0
20191022122957 73 99 10.0 15.0 0.00 0.00 0.00 68 1012.8
20191022122848 73 98 8.0 16.0 0.00 0.00 0.00 68 1013.0
20191022122750 74 116 5.0 16.0 0.00 0.00 0.00 68 1012.8
20191022122650 74 138 6.0 16.0 0.00 0.00 0.00 68 1012.9
20191022122545 74 109 5.0 16.0 0.00 0.00 0.00 68 1013.1
20191022122442 74 79 6.0 16.0 0.00 0.00 0.00 68 1013.2
20191022122347 73 89 5.0 16.0 0.00 0.00 0.00 68 1013.1
20191022122332 73 87 7.0 16.0 0.00 0.00 0.00 68 1013.1
20191022122229 73 105 3.0 16.0 0.00 0.00 0.00 68 1013.1
20191022122126 74 115 8.0 16.0 0.00 0.00 0.00 68 1012.9
20191022122022 74 27 11.0 16.0 0.00 0.00 0.00 68 1013.1
20191022121920 74 145 6.0 15.0 0.00 0.00 0.00 68 1013.1
20191022121846 74 113 4.0 15.0 0.00 0.00 0.00 68 1012.9
20191022121811 74 96 9.0 15.0 0.00 0.00 0.00 68 1012.9
20191022121707 74 113 4.0 15.0 0.00 0.00 0.00 68 1013.0
20191022121604 74 119 7.0 15.0 0.00 0.00 0.00 68 1012.9
20191022121501 74 100 9.0 15.0 0.00 0.00 0.00 68 1013.1
20191022121344 74 147 6.0 15.0 0.00 0.00 0.00 68 1012.9
20191022121255 74 138 7.0 15.0 0.00 0.00 0.00 68 1013.1
20191022121152 74 85 5.0 15.0 0.00 0.00 0.00 68 1012.8
20191022121049 74 107 6.0 15.0 0.00 0.00 0.00 68 1013.0
20191022120946 74 310 12.0 15.0 0.00 0.00 0.00 68 1012.9
20191022120845 74 139 6.0 13.0 0.00 0.00 0.00 68 1013.0
20191022120733 74 38 7.0 16.0 0.00 0.00 0.00 68 1012.9
20191022120630 74 85 9.0 18.0 0.00 0.00 0.00 68 1013.1
20191022120527 74 122 5.0 18.0 0.00 0.00 0.00 68 1012.8
20191022120424 74 87 9.0 18.0 0.00 0.00 0.00 68 1012.8
20191022120334 74 91 9.0 18.0 0.00 0.00 0.00 68 1012.6
20191022120321 74 124 6.0 18.0 0.00 0.00 0.00 68 1012.6
20191022120218 74 75 7.0 18.0 0.00 0.00 0.00 68 1012.9
20191022120116 74 114 7.0 18.0 0.00 0.00 0.00 68 1012.9
20191022120012 74 32 10.0 18.0 0.00 0.00 0.00 68 1013.1
20191022115909 74 52 9.0 18.0 0.00 0.00 0.00 68 1013.0
20191022115834 74 113 7.0 18.0 0.00 0.00 0.00 68 1012.8
20191022115806 74 97 11.0 18.0 0.00 0.00 0.00 68 1012.8
20191022115703 74 73 10.0 18.0 0.00 0.00 0.00 68 1012.8
20191022115600 74 118 6.0 17.0 0.00 0.00 0.00 68 1012.6
20191022115457 74 127 7.0 17.0 0.00 0.00 0.00 68 1013.1
20191022115354 74 122 7.0 17.0 0.00 0.00 0.00 68 1012.7
20191022115334 74 95 5.0 17.0 0.00 0.00 0.00 68 1012.7
20191022115251 74 99 7.0 17.0 0.00 0.00 0.00 68 1012.8
20191022115148 74 23 7.0 17.0 0.00 0.00 0.00 68 1012.8
20191022115045 74 92 6.0 17.0 0.00 0.00 0.00 68 1012.8
20191022114941 74 81 5.0 17.0 0.00 0.00 0.00 68 1012.7
20191022114833 74 122 7.0 16.0 0.00 0.00 0.00 68 1012.6
20191022114735 74 80 8.0 16.0 0.00 0.00 0.00 68 1012.6
20191022114635 74 81 8.0 16.0 0.00 0.00 0.00 68 1012.7
20191022114531 74 99 7.0 16.0 0.00 0.00 0.00 68 1012.7
20191022114420 74 138 5.0 16.0 0.00 0.00 0.00 67 1012.8
20191022114317 74 130 5.0 16.0 0.00 0.00 0.00 67 1012.6
20191022114214 74 96 6.0 16.0 0.00 0.00 0.00 68 1012.8
20191022114111 74 121 11.0 16.0 0.00 0.00 0.00 68 1012.7
20191022114007 74 92 7.0 16.0 0.00 0.00 0.00 67 1012.7
20191022113858 74 83 8.0 14.0 0.00 0.00 0.00 67 1012.7
20191022113830 74 156 4.0 14.0 0.00 0.00 0.00 67 1012.7
20191022113755 74 82 5.0 14.0 0.00 0.00 0.00 67 1012.9
20191022113651 74 141 6.0 14.0 0.00 0.00 0.00 67 1012.7
20191022113549 74 109 7.0 14.0 0.00 0.00 0.00 67 1012.6
20191022113446 74 79 6.0 14.0 0.00 0.00 0.00 67 1012.8
20191022113343 74 104 6.0 14.0 0.00 0.00 0.00 67 1012.6
20191022113322 74 146 9.0 14.0 0.00 0.00 0.00 67 1012.6
20191022113240 74 119 8.0 14.0 0.00 0.00 0.00 67 1012.7
20191022113137 74 68 6.0 14.0 0.00 0.00 0.00 67 1012.6
20191022113033 74 145 7.0 14.0 0.00 0.00 0.00 67 1012.8
20191022112931 74 103 4.0 14.0 0.00 0.00 0.00 67 1012.7
20191022112823 74 107 5.0 14.0 0.00 0.00 0.00 67 1012.6
20191022112717 74 66 5.0 14.0 0.00 0.00 0.00 67 1012.5
20191022112616 74 54 3.0 14.0 0.00 0.00 0.00 67 1012.5
20191022112512 74 80 5.0 14.0 0.00 0.00 0.00 67 1012.5
20191022112409 74 131 7.0 14.0 0.00 0.00 0.00 67 1012.6
20191022112314 74 94 8.0 15.0 0.00 0.00 0.00 67 1012.6
20191022112306 74 90 7.0 15.0 0.00 0.00 0.00 67 1012.6
20191022112155 74 91 6.0 15.0 0.00 0.00 0.00 67 1012.6
20191022112052 74 72 7.0 15.0 0.00 0.00 0.00 67 1012.5
20191022111950 74 117 7.0 15.0 0.00 0.00 0.00 67 1012.6
20191022111847 74 142 5.0 15.0 0.00 0.00 0.00 67 1012.6
20191022111812 74 89 6.0 15.0 0.00 0.00 0.00 67 1012.6
20191022111744 74 92 10.0 15.0 0.00 0.00 0.00 67 1012.4
20191022111641 74 143 7.0 15.0 0.00 0.00 0.00 66 1012.5
20191022111537 74 137 9.0 16.0 0.00 0.00 0.00 66 1012.5
20191022111428 74 70 10.0 16.0 0.00 0.00 0.00 66 1012.6
20191022111311 74 85 8.0 16.0 0.00 0.00 0.00 66 1012.6
20191022111221 74 136 6.0 16.0 0.00 0.00 0.00 66 1012.4
20191022111119 74 102 4.0 16.0 0.00 0.00 0.00 66 1012.5
20191022111015 74 94 5.0 16.0 0.00 0.00 0.00 66 1012.4
20191022110913 74 42 6.0 16.0 0.00 0.00 0.00 66 1012.4
20191022110812 74 116 4.0 16.0 0.00 0.00 0.00 66 1012.6
20191022110706 74 95 8.0 16.0 0.00 0.00 0.00 66 1012.2
20191022110556 74 136 4.0 16.0 0.00 0.00 0.00 66 1012.3
20191022110454 74 80 6.0 16.0 0.00 0.00 0.00 66 1012.2
20191022110351 74 74 6.0 16.0 0.00 0.00 0.00 66 1012.3
20191022110309 74 75 7.0 16.0 0.00 0.00 0.00 66 1012.5
20191022110247 74 113 8.0 16.0 0.00 0.00 0.00 66 1012.5
20191022110147 74 106 11.0 16.0 0.00 0.00 0.00 66 1012.1
20191022110034 74 145 4.0 14.0 0.00 0.00 0.00 66 1012.2
20191022105932 74 107 9.0 14.0 0.00 0.00 0.00 66 1012.4
20191022105829 74 95 6.0 14.0 0.00 0.00 0.00 66 1012.3
20191022105808 74 140 5.0 14.0 0.00 0.00 0.00 66 1012.3
20191022105726 74 50 6.0 15.0 0.00 0.00 0.00 66 1012.4
20191022105623 74 96 9.0 15.0 0.00 0.00 0.00 66 1012.4
20191022105520 74 167 4.0 15.0 0.00 0.00 0.00 66 1012.4
20191022105417 74 124 8.0 16.0 0.00 0.00 0.00 66 1012.5
20191022105314 74 139 10.0 16.0 0.00 0.00 0.00 66 1012.3
20191022105307 74 152 10.0 16.0 0.00 0.00 0.00 66 1012.3
20191022105211 74 94 5.0 16.0 0.00 0.00 0.00 66 1012.1
20191022105107 74 94 8.0 16.0 0.00 0.00 0.00 66 1012.3
20191022104958 74 78 7.0 16.0 0.00 0.00 0.00 66 1012.3
20191022104855 74 77 4.0 16.0 0.00 0.00 0.00 66 1012.0
20191022104808 74 92 10.0 16.0 0.00 0.00 0.00 66 1012.3
20191022104752 74 91 7.0 16.0 0.00 0.00 0.00 66 1012.3
20191022104649 74 115 8.0 16.0 0.00 0.00 0.00 66 1012.0
20191022104546 74 75 7.0 16.0 0.00 0.00 0.00 66 1012.1
20191022104442 74 119 10.0 16.0 0.00 0.00 0.00 66 1012.3
20191022104333 74 73 10.0 15.0 0.00 0.00 0.00 66 1012.3
20191022104305 74 181 4.0 15.0 0.00 0.00 0.00 66 1012.3
20191022104230 74 139 4.0 15.0 0.00 0.00 0.00 66 1012.0
20191022104126 74 90 6.0 15.0 0.00 0.00 0.00 66 1012.1
20191022104023 74 127 8.0 15.0 0.00 0.00 0.00 66 1012.0
20191022103920 74 93 7.0 15.0 0.00 0.00 0.00 66 1011.9
20191022103804 74 115 7.0 15.0 0.00 0.00 0.00 66 1012.2
20191022103710 74 128 8.0 15.0 0.00 0.00 0.00 66 1012.2
20191022103607 74 78 11.0 15.0 0.00 0.00 0.00 66 1012.2
20191022103501 74 81 6.0 13.0 0.00 0.00 0.00 66 1012.2
20191022103359 74 72 5.0 15.0 0.00 0.00 0.00 66 1012.2
20191022103306 74 51 8.0 15.0 0.00 0.00 0.00 66 1012.1
20191022103255 74 96 7.0 15.0 0.00 0.00 0.00 66 1012.1
20191022103152 74 79 6.0 15.0 0.00 0.00 0.00 66 1012.3
20191022103050 74 67 4.0 15.0 0.00 0.00 0.00 66 1012.0
20191022102947 74 108 5.0 15.0 0.00 0.00 0.00 66 1012.3
20191022102844 74 148 6.0 15.0 0.00 0.00 0.00 65 1012.0
20191022102803 74 102 4.0 15.0 0.00 0.00 0.00 66 1012.1
20191022102735 74 183 7.0 15.0 0.00 0.00 0.00 66 1012.1
20191022102631 74 168 8.0 15.0 0.00 0.00 0.00 65 1011.9
20191022102528 74 94 4.0 15.0 0.00 0.00 0.00 66 1012.0
20191022102425 74 352 8.0 15.0 0.00 0.00 0.00 65 1012.1
20191022102322 74 27 6.0 15.0 0.00 0.00 0.00 65 1012.0
20191022102301 74 120 7.0 15.0 0.00 0.00 0.00 65 1012.0
20191022102212 74 138 12.0 15.0 0.00 0.00 0.00 65 1012.0
20191022102108 74 56 5.0 15.0 0.00 0.00 0.00 66 1012.1
20191022102005 74 119 10.0 15.0 0.00 0.00 0.00 65 1012.1
20191022101903 74 135 10.0 13.0 0.00 0.00 0.00 65 1011.9
20191022101804 74 121 5.0 11.0 0.00 0.00 0.00 65 1011.9
20191022101659 74 101 5.0 11.0 0.00 0.00 0.00 66 1011.8
20191022101554 74 81 6.0 13.0 0.00 0.00 0.00 66 1011.8
20191022101451 74 86 7.0 19.0 0.00 0.00 0.00 65 1011.9
20191022101341 74 122 4.0 19.0 0.00 0.00 0.00 66 1011.8
20191022101300 74 117 4.0 19.0 0.00 0.00 0.00 66 1012.0
20191022101238 74 103 4.0 19.0 0.00 0.00 0.00 66 1012.0
20191022101135 74 93 5.0 19.0 0.00 0.00 0.00 66 1011.9
20191022101025 74 129 4.0 19.0 0.00 0.00 0.00 65 1012.0
20191022100922 74 84 5.0 19.0 0.00 0.00 0.00 65 1012.0
20191022100819 74 120 6.0 19.0 0.00 0.00 0.00 65 1012.0
20191022100759 74 119 4.0 19.0 0.00 0.00 0.00 65 1011.9
20191022100716 74 110 4.0 19.0 0.00 0.00 0.00 65 1011.9
20191022100612 74 94 8.0 19.0 0.00 0.00 0.00 65 1011.9
20191022100510 74 161 7.0 15.0 0.00 0.00 0.00 65 1011.8
20191022100406 74 143 10.0 13.0 0.00 0.00 0.00 65 1011.9
20191022100304 74 37 7.0 11.0 0.00 0.00 0.00 65 1011.7
20191022100257 74 37 7.0 11.0 0.00 0.00 0.00 65 1012.0
20191022100201 74 111 4.0 11.0 0.00 0.00 0.00 65 1011.7
20191022100058 74 145 5.0 11.0 0.00 0.00 0.00 65 1011.7
20191022095948 74 87 2.0 11.0 0.00 0.00 0.00 65 1011.9
20191022095845 74 113 4.0 11.0 0.00 0.00 0.00 65 1011.7
20191022095757 74 134 4.0 15.0 0.00 0.00 0.00 65 1011.6
20191022095742 74 87 5.0 15.0 0.00 0.00 0.00 65 1011.6
20191022095639 74 147 4.0 15.0 0.00 0.00 0.00 65 1011.8
20191022095536 74 81 4.0 15.0 0.00 0.00 0.00 66 1011.5
20191022095433 74 121 6.0 15.0 0.00 0.00 0.00 65 1011.7
20191022095330 74 121 3.0 15.0 0.00 0.00 0.00 66 1011.7
20191022095110 74 97 6.0 15.0 0.00 0.00 0.00 66 1011.8
20191022095008 74 80 7.0 15.0 0.00 0.00 0.00 66 1011.8
20191022094903 74 141 7.0 15.0 0.00 0.00 0.00 66 1011.9
20191022094754 74 93 10.0 11.0 0.00 0.00 0.00 65 1011.6
20191022094657 74 138 5.0 10.0 0.00 0.00 0.00 65 1011.6
20191022094602 74 101 3.0 14.0 0.00 0.00 0.00 65 1011.7
20191022094453 75 143 8.0 14.0 0.00 0.00 0.00 65 1011.9
20191022094349 75 73 6.0 14.0 0.00 0.00 0.00 65 1011.6
20191022094246 74 53 5.0 14.0 0.00 0.00 0.00 65 1011.7
20191022094142 74 120 6.0 14.0 0.00 0.00 0.00 65 1011.9
20191022094033 74 110 5.0 14.0 0.00 0.00 0.00 65 1012.0
20191022093930 74 89 6.0 14.0 0.00 0.00 0.00 65 1011.5
20191022093826 75 122 5.0 14.0 0.00 0.00 0.00 65 1011.9
20191022093752 75 74 7.0 14.0 0.00 0.00 0.00 65 1011.7
20191022093723 75 75 6.0 14.0 0.00 0.00 0.00 65 1011.7
20191022093621 75 36 3.0 10.0 0.00 0.00 0.00 65 1011.7
20191022093518 75 88 4.0 10.0 0.00 0.00 0.00 65 1011.7
20191022093415 75 129 5.0 10.0 0.00 0.00 0.00 65 1011.7
20191022093311 75 125 7.0 10.0 0.00 0.00 0.00 64 1011.8
20191022093251 75 56 5.0 10.0 0.00 0.00 0.00 64 1011.7
20191022093209 75 115 5.0 10.0 0.00 0.00 0.00 64 1011.7
20191022093106 75 90 5.0 10.0 0.00 0.00 0.00 64 1011.7
20191022092956 75 101 4.0 11.0 0.00 0.00 0.00 64 1011.7
20191022092852 75 137 5.0 11.0 0.00 0.00 0.00 64 1011.7
20191022092752 75 56 3.0 11.0 0.00 0.00 0.00 64 1011.7
20191022092646 75 27 4.0 11.0 0.00 0.00 0.00 64 1011.7
20191022092544 75 157 6.0 11.0 0.00 0.00 0.00 64 1011.7
20191022092441 75 49 3.0 11.0 0.00 0.00 0.00 64 1011.8
20191022092337 75 121 6.0 11.0 0.00 0.00 0.00 63 1012.0
20191022092234 75 120 5.0 11.0 0.00 0.00 0.00 63 1011.8
20191022092125 75 121 5.0 11.0 0.00 0.00 0.00 63 1011.6
20191022092021 75 82 5.0 9.0 0.00 0.00 0.00 63 1011.7
20191022091919 75 130 6.0 9.0 0.00 0.00 0.00 63 1011.6
20191022091816 75 99 4.0 8.0 0.00 0.00 0.00 62 1011.6
20191022091742 75 147 2.0 8.0 0.00 0.00 0.00 62 1011.7
20191022091713 75 105 3.0 8.0 0.00 0.00 0.00 62 1011.7
20191022091610 75 97 3.0 8.0 0.00 0.00 0.00 62 1011.7
20191022091509 75 98 4.0 8.0 0.00 0.00 0.00 62 1011.8
20191022091357 75 98 2.0 8.0 0.00 0.00 0.00 62 1012.0
20191022091254 75 105 3.0 8.0 0.00 0.00 0.00 62 1011.9
20191022091234 75 56 2.0 8.0 0.00 0.00 0.00 62 1011.9
20191022091151 75 81 4.0 13.0 0.00 0.00 0.00 62 1011.9
20191022091048 75 112 3.0 13.0 0.00 0.00 0.00 61 1011.8
20191022090945 75 124 7.0 13.0 0.00 0.00 0.00 61 1011.8
20191022090842 75 94 3.0 13.0 0.00 0.00 0.00 61 1011.8
20191022090734 76 53 2.0 13.0 0.00 0.00 0.00 61 1011.6
20191022090631 76 67 4.0 13.0 0.00 0.00 0.00 61 1011.5
20191022090526 76 58 1.0 13.0 0.00 0.00 0.00 60 1011.6
20191022090423 75 110 4.0 13.0 0.00 0.00 0.00 60 1011.7
20191022090320 75 113 2.0 13.0 0.00 0.00 0.00 61 1011.7
20191022090231 75 12 6.0 13.0 0.00 0.00 0.00 61 1011.8
20191022090210 75 83 6.0 10.0 0.00 0.00 0.00 61 1011.8
20191022090107 75 106 4.0 10.0 0.00 0.00 0.00 61 1011.8
20191022090003 75 76 5.0 10.0 0.00 0.00 0.00 61 1011.7
20191022085901 75 80 7.0 10.0 0.00 0.00 0.00 60 1011.5
20191022085758 76 154 7.0 10.0 0.00 0.00 0.00 60 1011.4
20191022085724 76 107 6.0 10.0 0.00 0.00 0.00 60 1011.4
20191022085655 76 61 5.0 10.0 0.00 0.00 0.00 60 1011.7
20191022085552 76 108 2.0 9.0 0.00 0.00 0.00 60 1011.7
20191022085449 76 109 2.0 9.0 0.00 0.00 0.00 59 1011.7
20191022085346 76 57 2.0 9.0 0.00 0.00 0.00 59 1011.6
20191022085242 76 79 2.0 11.0 0.00 0.00 0.00 59 1011.7
20191022085222 76 53 3.0 11.0 0.00 0.00 0.00 59 1011.7
20191022085133 76 33 1.0 11.0 0.00 0.00 0.00 59 1011.7
20191022085030 76 78 3.0 11.0 0.00 0.00 0.00 60 1011.6
20191022084926 76 74 3.0 11.0 0.00 0.00 0.00 59 1011.8
20191022084824 76 146 4.0 11.0 0.00 0.00 0.00 59 1011.7
20191022084724 76 113 4.0 11.0 0.00 0.00 0.00 59 1011.5
20191022084620 76 66 5.0 11.0 0.00 0.00 0.00 59 1011.5
20191022084508 76 48 3.0 11.0 0.00 0.00 0.00 59 1011.7
20191022084405 76 83 4.0 11.0 0.00 0.00 0.00 59 1011.7
20191022084302 76 151 8.0 11.0 0.00 0.00 0.00 59 1011.6
20191022084214 76 123 6.0 9.0 0.00 0.00 0.00 59 1011.6
20191022084158 76 139 7.0 9.0 0.00 0.00 0.00 59 1011.7
20191022084055 76 133 4.0 9.0 0.00 0.00 0.00 59 1011.6
20191022083953 76 105 3.0 9.0 0.00 0.00 0.00 58 1011.7
20191022083849 76 126 4.0 9.0 0.00 0.00 0.00 58 1011.6
20191022083739 76 135 4.0 17.0 0.00 0.00 0.00 58 1011.6
20191022083712 76 124 4.0 17.0 0.00 0.00 0.00 58 1011.6
20191022083637 76 166 4.0 17.0 0.00 0.00 0.00 58 1011.6
20191022083535 76 82 4.0 17.0 0.00 0.00 0.00 58 1011.6
20191022083431 76 100 4.0 17.0 0.00 0.00 0.00 58 1011.5
20191022083328 76 107 4.0 17.0 0.00 0.00 0.00 58 1011.6
20191022083225 76 89 2.0 17.0 0.00 0.00 0.00 58 1011.4
20191022083212 76 72 2.0 17.0 0.00 0.00 0.00 58 1011.4
20191022083122 76 70 3.0 17.0 0.00 0.00 0.00 58 1011.6
20191022083018 76 135 4.0 17.0 0.00 0.00 0.00 58 1011.6
20191022082909 76 124 4.0 17.0 0.00 0.00 0.00 58 1011.5
20191022082806 76 101 13.0 17.0 0.00 0.00 0.00 58 1011.3
20191022082711 76 78 8.0 16.0 0.00 0.00 0.00 58 1011.4
20191022082703 76 112 9.0 16.0 0.00 0.00 0.00 58 1011.6
20191022082559 76 58 5.0 16.0 0.00 0.00 0.00 57 1011.4
20191022082456 76 73 8.0 16.0 0.00 0.00 0.00 58 1011.4
20191022082353 76 94 4.0 16.0 0.00 0.00 0.00 57 1011.3
20191022082250 76 76 8.0 16.0 0.00 0.00 0.00 57 1011.5
20191022082210 76 123 9.0 16.0 0.00 0.00 0.00 57 1011.5
20191022082148 76 93 6.0 16.0 0.00 0.00 0.00 57 1011.5
20191022082037 76 16 7.0 16.0 0.00 0.00 0.00 57 1011.4
20191022081935 76 29 9.0 16.0 0.00 0.00 0.00 57 1011.7
20191022081832 76 129 9.0 15.0 0.00 0.00 0.00 57 1011.2
20191022081729 76 83 9.0 15.0 0.00 0.00 0.00 57 1011.6
20191022081709 77 96 7.0 15.0 0.00 0.00 0.00 57 1011.6
20191022081625 77 73 6.0 15.0 0.00 0.00 0.00 57 1011.6
20191022081522 77 65 5.0 15.0 0.00 0.00 0.00 56 1011.6
20191022081420 77 97 3.0 15.0 0.00 0.00 0.00 57 1011.6
20191022081310 77 73 4.0 15.0 0.00 0.00 0.00 57 1011.4
20191022081210 77 116 6.0 15.0 0.00 0.00 0.00 56 1011.5
20191022081104 77 93 3.0 14.0 0.00 0.00 0.00 56 1011.2
20191022081001 77 74 5.0 14.0 0.00 0.00 0.00 56 1011.7
20191022080858 77 54 6.0 14.0 0.00 0.00 0.00 56 1011.3
20191022080755 77 91 5.0 14.0 0.00 0.00 0.00 56 1011.3
20191022080707 77 123 8.0 14.0 0.00 0.00 0.00 56 1011.5
20191022080644 77 117 6.0 14.0 0.00 0.00 0.00 56 1011.5
20191022080543 77 146 8.0 14.0 0.00 0.00 0.00 55 1011.3
20191022080438 77 46 7.0 13.0 0.00 0.00 0.00 55 1011.5
20191022080336 77 103 5.0 13.0 0.00 0.00 0.00 55 1011.4
20191022080233 77 81 4.0 13.0 0.00 0.00 0.00 55 1011.5
20191022080159 77 94 8.0 13.0 0.00 0.00 0.00 55 1011.6
20191022080130 77 51 4.0 13.0 0.00 0.00 0.00 55 1011.6
20191022080027 77 92 6.0 13.0 0.00 0.00 0.00 54 1011.4
20191022075917 77 85 4.0 13.0 0.00 0.00 0.00 55 1011.7
20191022075813 77 111 6.0 13.0 0.00 0.00 0.00 55 1011.5
20191022075711 78 85 6.0 10.0 0.00 0.00 0.00 55 1011.5
20191022075657 78 114 4.0 10.0 0.00 0.00 0.00 55 1011.4
20191022075608 78 113 4.0 10.0 0.00 0.00 0.00 56 1011.4
20191022075507 78 81 6.0 10.0 0.00 0.00 0.00 56 1011.4
20191022075401 78 66 7.0 10.0 0.00 0.00 0.00 55 1011.5
20191022075251 77 90 3.0 10.0 0.00 0.00 0.00 56 1011.5
20191022075149 77 140 3.0 10.0 0.00 0.00 0.00 56 1011.5
20191022075046 77 91 4.0 10.0 0.00 0.00 0.00 56 1011.5
20191022074943 77 82 6.0 10.0 0.00 0.00 0.00 56 1011.4
20191022074840 77 130 5.0 14.0 0.00 0.00 0.00 56 1011.4
20191022074736 78 121 7.0 14.0 0.00 0.00 0.00 56 1011.4
20191022074655 78 77 4.0 14.0 0.00 0.00 0.00 56 1011.4
20191022074635 78 72 5.0 14.0 0.00 0.00 0.00 56 1011.4
20191022074530 78 94 6.0 14.0 0.00 0.00 0.00 55 1011.4
20191022074428 78 76 3.0 14.0 0.00 0.00 0.00 56 1011.4
20191022074318 78 126 9.0 14.0 0.00 0.00 0.00 55 1011.2
20191022074208 78 68 4.0 14.0 0.00 0.00 0.00 56 1011.5
20191022074154 78 122 4.0 14.0 0.00 0.00 0.00 56 1011.3
20191022074105 78 99 5.0 14.0 0.00 0.00 0.00 56 1011.3
20191022074003 78 76 4.0 14.0 0.00 0.00 0.00 56 1011.4
20191022073859 78 72 9.0 13.0 0.00 0.00 0.00 56 1011.4
20191022073756 78 139 6.0 13.0 0.00 0.00 0.00 56 1011.3
20191022073655 78 90 2.0 13.0 0.00 0.00 0.00 56 1011.2
20191022073551 78 111 9.0 13.0 0.00 0.00 0.00 56 1011.2
20191022073447 78 100 7.0 10.0 0.00 0.00 0.00 56 1011.3
20191022073343 78 102 5.0 10.0 0.00 0.00 0.00 56 1011.3
20191022073241 78 61 8.0 10.0 0.00 0.00 0.00 56 1011.2
20191022073147 78 136 2.0 10.0 0.00 0.00 0.00 56 1011.3
20191022073137 78 65 6.0 10.0 0.00 0.00 0.00 56 1011.3
20191022073035 78 30 5.0 10.0 0.00 0.00 0.00 56 1011.2
20191022072932 78 140 7.0 10.0 0.00 0.00 0.00 56 1011.3
20191022072822 79 101 4.0 9.0 0.00 0.00 0.00 56 1011.2
20191022072719 79 102 7.0 9.0 0.00 0.00 0.00 56 1011.2
20191022072645 79 82 4.0 9.0 0.00 0.00 0.00 55 1011.2
20191022072615 79 98 4.0 9.0 0.00 0.00 0.00 55 1011.2
20191022072513 79 40 4.0 9.0 0.00 0.00 0.00 56 1011.3
20191022072410 79 41 5.0 9.0 0.00 0.00 0.00 55 1011.1
20191022072306 79 100 2.0 9.0 0.00 0.00 0.00 55 1011.2
20191022072156 79 65 3.0 9.0 0.00 0.00 0.00 54 1011.2
20191022072143 79 65 3.0 9.0 0.00 0.00 0.00 54 1011.2
20191022072054 79 41 3.0 11.0 0.00 0.00 0.00 54 1011.2
20191022071950 79 44 2.0 11.0 0.00 0.00 0.00 54 1011.2
20191022071848 79 30 4.0 11.0 0.00 0.00 0.00 54 1011.3
20191022071745 79 72 5.0 11.0 0.00 0.00 0.00 55 1011.1
20191022071644 79 123 4.0 11.0 0.00 0.00 0.00 55 1011.2
20191022071541 79 137 3.0 11.0 0.00 0.00 0.00 55 1011.2
20191022071428 79 38 6.0 11.0 0.00 0.00 0.00 55 1010.9
20191022071325 79 139 5.0 11.0 0.00 0.00 0.00 55 1011.2
20191022071223 79 100 8.0 11.0 0.00 0.00 0.00 55 1011.0
20191022071135 79 122 7.0 11.0 0.00 0.00 0.00 55 1011.2
20191022071119 79 62 6.0 11.0 0.00 0.00 0.00 55 1011.2
20191022071010 79 135 5.0 11.0 0.00 0.00 0.00 55 1010.8
20191022070907 79 90 5.0 14.0 0.00 0.00 0.00 55 1011.0
20191022070804 79 181 4.0 14.0 0.00 0.00 0.00 55 1011.1
20191022070701 80 68 4.0 14.0 0.00 0.00 0.00 55 1011.1
20191022070633 80 118 6.0 14.0 0.00 0.00 0.00 55 1011.1
20191022070558 80 139 5.0 14.0 0.00 0.00 0.00 55 1011.2
20191022070457 79 6 2.0 14.0 0.00 0.00 0.00 55 1011.2
20191022070352 79 94 2.0 14.0 0.00 0.00 0.00 55 1011.0
20191022070248 79 66 5.0 14.0 0.00 0.00 0.00 55 1011.1
20191022070146 79 82 3.0 14.0 0.00 0.00 0.00 55 1011.1
20191022070133 79 82 3.0 14.0 0.00 0.00 0.00 56 1011.1
20191022070043 79 123 6.0 14.0 0.00 0.00 0.00 56 1011.0
20191022065933 79 118 8.0 13.0 0.00 0.00 0.00 55 1011.2
20191022065830 79 83 4.0 13.0 0.00 0.00 0.00 55 1011.1
20191022065727 79 161 7.0 13.0 0.00 0.00 0.00 55 1010.9
20191022065626 79 30 4.0 11.0 0.00 0.00 0.00 55 1011.2
20191022065522 79 104 4.0 11.0 0.00 0.00 0.00 55 1011.2
20191022065411 79 136 5.0 11.0 0.00 0.00 0.00 56 1011.0
20191022065308 79 105 6.0 11.0 0.00 0.00 0.00 55 1011.4
20191022065204 79 80 5.0 11.0 0.00 0.00 0.00 55 1011.4
20191022065122 79 89 4.0 11.0 0.00 0.00 0.00 55 1011.2
20191022065102 79 99 7.0 11.0 0.00 0.00 0.00 55 1011.1
20191022064959 80 123 5.0 11.0 0.00 0.00 0.00 55 1011.1
20191022064856 80 90 9.0 11.0 0.00 0.00 0.00 55 1011.0
20191022064753 80 98 3.0 11.0 0.00 0.00 0.00 54 1010.9
20191022064650 80 74 2.0 11.0 0.00 0.00 0.00 54 1011.1
20191022064616 79 43 3.0 11.0 0.00 0.00 0.00 55 1011.1
20191022064546 79 90 3.0 11.0 0.00 0.00 0.00 55 1011.2
20191022064443 79 154 5.0 11.0 0.00 0.00 0.00 55 1011.0
20191022064334 80 94 7.0 11.0 0.00 0.00 0.00 55 1011.2
20191022064231 80 143 9.0 11.0 0.00 0.00 0.00 54 1011.2
20191022064128 80 130 5.0 8.0 0.00 0.00 0.00 54 1011.1
20191022064115 80 89 3.0 8.0 0.00 0.00 0.00 55 1011.1
20191022064024 80 102 4.0 8.0 0.00 0.00 0.00 55 1011.1
20191022063923 80 106 4.0 8.0 0.00 0.00 0.00 55 1011.0
20191022063819 80 123 4.0 8.0 0.00 0.00 0.00 54 1011.2
20191022063716 80 98 3.0 8.0 0.00 0.00 0.00 54 1011.1
20191022063613 80 79 4.0 8.0 0.00 0.00 0.00 54 1011.1
20191022063606 80 77 6.0 8.0 0.00 0.00 0.00 54 1011.1
20191022063512 80 83 4.0 9.0 0.00 0.00 0.00 54 1011.0
20191022063407 80 103 4.0 9.0 0.00 0.00 0.00 53 1011.1
20191022063304 80 32 2.0 9.0 0.00 0.00 0.00 54 1011.2
20191022063201 80 93 3.0 9.0 0.00 0.00 0.00 54 1011.2
20191022063106 80 89 2.0 9.0 0.00 0.00 0.00 54 1011.1
20191022063057 80 89 2.0 9.0 0.00 0.00 0.00 55 1011.1
20191022062955 80 323 4.0 9.0 0.00 0.00 0.00 55 1011.0
20191022062852 80 89 2.0 10.0 0.00 0.00 0.00 54 1011.0
20191022062748 80 141 5.0 10.0 0.00 0.00 0.00 54 1011.2
20191022062646 80 97 2.0 10.0 0.00 0.00 0.00 54 1010.9
20191022062604 80 103 6.0 10.0 0.00 0.00 0.00 55 1010.9
20191022062543 80 103 6.0 10.0 0.00 0.00 0.00 55 1011.2
20191022062440 80 103 7.0 10.0 0.00 0.00 0.00 55 1011.1
20191022062337 80 77 4.0 10.0 0.00 0.00 0.00 55 1011.0
20191022062233 80 30 4.0 10.0 0.00 0.00 0.00 55 1011.3
20191022062131 80 122 5.0 10.0 0.00 0.00 0.00 55 1010.9
20191022062103 80 101 6.0 10.0 0.00 0.00 0.00 54 1010.9
20191022062021 80 94 6.0 10.0 0.00 0.00 0.00 54 1011.2
20191022061918 80 120 5.0 10.0 0.00 0.00 0.00 55 1011.2
20191022061815 80 112 6.0 10.0 0.00 0.00 0.00 55 1011.2
20191022061712 80 109 5.0 9.0 0.00 0.00 0.00 54 1011.2
20191022061610 80 115 7.0 9.0 0.00 0.00 0.00 55 1011.1
20191022061602 80 134 4.0 9.0 0.00 0.00 0.00 55 1011.1
20191022061507 80 120 5.0 9.0 0.00 0.00 0.00 54 1010.9
20191022061356 80 11 2.0 9.0 0.00 0.00 0.00 55 1011.1
20191022061253 80 102 3.0 9.0 0.00 0.00 0.00 55 1011.1
20191022061149 80 122 7.0 9.0 0.00 0.00 0.00 54 1011.4
20191022061101 80 154 6.0 9.0 0.00 0.00 0.00 55 1011.3
20191022061047 80 154 6.0 9.0 0.00 0.00 0.00 55 1011.3
20191022060944 80 41 4.0 9.0 0.00 0.00 0.00 54 1011.1
20191022060841 80 57 6.0 9.0 0.00 0.00 0.00 54 1011.1
20191022060738 80 76 3.0 9.0 0.00 0.00 0.00 54 1011.2
20191022060635 80 90 3.0 9.0 0.00 0.00 0.00 54 1011.0
20191022060600 80 69 4.0 9.0 0.00 0.00 0.00 54 1011.3
20191022060532 80 58 4.0 9.0 0.00 0.00 0.00 54 1011.3
20191022060422 80 83 6.0 9.0 0.00 0.00 0.00 54 1011.2
20191022060319 80 115 5.0 9.0 0.00 0.00 0.00 54 1011.2
20191022060216 80 89 6.0 9.0 0.00 0.00 0.00 54 1011.2
20191022060113 80 87 4.0 9.0 0.00 0.00 0.00 55 1011.2
20191022060059 80 124 6.0 9.0 0.00 0.00 0.00 55 1011.3
20191022060010 80 129 5.0 10.0 0.00 0.00 0.00 55 1011.3
20191022055907 80 110 5.0 15.0 0.00 0.00 0.00 54 1011.3
20191022055803 80 73 4.0 15.0 0.00 0.00 0.00 54 1011.3
20191022055659 80 91 4.0 15.0 0.00 0.00 0.00 54 1011.3
20191022055556 80 80 7.0 15.0 0.00 0.00 0.00 55 1011.3
20191022055548 80 80 7.0 15.0 0.00 0.00 0.00 54 1011.3
20191022055446 80 122 4.0 15.0 0.00 0.00 0.00 55 1011.1
20191022055343 79 109 5.0 15.0 0.00 0.00 0.00 55 1011.1
20191022055240 79 70 5.0 15.0 0.00 0.00 0.00 55 1011.1
20191022055137 79 184 5.0 15.0 0.00 0.00 0.00 55 1011.1
20191022055055 79 59 6.0 15.0 0.00 0.00 0.00 55 1011.2
20191022055026 79 49 4.0 15.0 0.00 0.00 0.00 55 1011.2
20191022054924 79 147 10.0 13.0 0.00 0.00 0.00 55 1011.3
20191022054821 80 139 8.0 13.0 0.00 0.00 0.00 54 1011.2
20191022054718 80 95 5.0 13.0 0.00 0.00 0.00 54 1010.9
20191022054615 80 121 7.0 13.0 0.00 0.00 0.00 54 1011.4
20191022054555 80 126 8.0 13.0 0.00 0.00 0.00 54 1011.3
20191022054512 80 134 6.0 13.0 0.00 0.00 0.00 54 1011.3
20191022054409 80 106 6.0 13.0 0.00 0.00 0.00 54 1011.0
20191022054306 80 89 4.0 13.0 0.00 0.00 0.00 54 1011.4
20191022054201 80 110 6.0 10.0 0.00 0.00 0.00 55 1011.3
20191022054059 80 187 4.0 11.0 0.00 0.00 0.00 54 1011.3
20191022054052 80 187 4.0 11.0 0.00 0.00 0.00 55 1011.3
20191022053956 80 99 6.0 11.0 0.00 0.00 0.00 54 1011.2
20191022053845 80 93 4.0 11.0 0.00 0.00 0.00 54 1011.3
20191022053743 80 74 5.0 11.0 0.00 0.00 0.00 54 1011.1
20191022053640 80 336 2.0 11.0 0.00 0.00 0.00 54 1011.3
20191022053552 80 120 3.0 11.0 0.00 0.00 0.00 54 1011.3
20191022053537 80 80 4.0 11.0 0.00 0.00 0.00 54 1011.3
20191022053434 80 53 8.0 11.0 0.00 0.00 0.00 54 1011.4
20191022053330 79 98 6.0 11.0 0.00 0.00 0.00 54 1011.3
20191022053221 79 124 6.0 11.0 0.00 0.00 0.00 55 1011.3
20191022053117 80 119 9.0 11.0 0.00 0.00 0.00 55 1011.2
20191022053050 80 93 3.0 11.0 0.00 0.00 0.00 54 1011.3
20191022053015 81 85 6.0 11.0 0.00 0.00 0.00 54 1011.3
20191022052912 81 146 8.0 11.0 0.00 0.00 0.00 54 1011.5
20191022052808 81 113 2.0 11.0 0.00 0.00 0.00 53 1011.4
20191022052706 81 140 2.0 11.0 0.00 0.00 0.00 53 1011.4
20191022052550 80 81 2.0 13.0 0.00 0.00 0.00 53 1011.3
20191022052453 80 337 2.0 13.0 0.00 0.00 0.00 54 1011.3
20191022052349 80 46 6.0 13.0 0.00 0.00 0.00 54 1011.5
20191022052246 80 121 3.0 13.0 0.00 0.00 0.00 54 1011.3
20191022052143 80 110 9.0 13.0 0.00 0.00 0.00 55 1011.4
20191022052049 80 97 6.0 13.0 0.00 0.00 0.00 55 1011.5
20191022052041 80 108 4.0 13.0 0.00 0.00 0.00 55 1011.5
20191022051937 80 126 5.0 13.0 0.00 0.00 0.00 55 1011.3
20191022051827 80 126 6.0 13.0 0.00 0.00 0.00 55 1011.5
20191022051725 80 108 6.0 13.0 0.00 0.00 0.00 55 1011.2
20191022051622 80 98 7.0 11.0 0.00 0.00 0.00 55 1011.7
20191022051547 80 137 6.0 10.0 0.00 0.00 0.00 55 1011.6
20191022051512 80 126 8.0 10.0 0.00 0.00 0.00 55 1011.6
20191022051411 80 77 5.0 13.0 0.00 0.00 0.00 55 1011.5
20191022051305 80 83 3.0 13.0 0.00 0.00 0.00 55 1011.7
20191022051203 80 62 4.0 13.0 0.00 0.00 0.00 55 1011.7
20191022051059 80 5 4.0 13.0 0.00 0.00 0.00 54 1011.5
20191022051047 80 92 4.0 13.0 0.00 0.00 0.00 54 1011.5
20191022050957 80 81 5.0 13.0 0.00 0.00 0.00 55 1011.7
20191022050853 80 87 5.0 13.0 0.00 0.00 0.00 54 1011.6
20191022050751 80 121 5.0 13.0 0.00 0.00 0.00 55 1011.6
20191022050648 80 151 7.0 13.0 0.00 0.00 0.00 55 1011.6
20191022050549 80 113 6.0 13.0 0.00 0.00 0.00 55 1011.7
20191022050443 80 180 9.0 11.0 0.00 0.00 0.00 54 1011.3
20191022050339 80 166 4.0 10.0 0.00 0.00 0.00 54 1011.7
20191022050228 80 82 2.0 10.0 0.00 0.00 0.00 55 1011.6
20191022050127 80 172 8.0 10.0 0.00 0.00 0.00 55 1011.8
20191022050037 80 135 8.0 10.0 0.00 0.00 0.00 54 1011.7
20191022050026 80 115 8.0 10.0 0.00 0.00 0.00 54 1011.7
20191022045920 80 114 6.0 10.0 0.00 0.00 0.00 54 1011.7
20191022045817 80 150 3.0 10.0 0.00 0.00 0.00 54 1011.6
20191022045714 80 29 2.0 10.0 0.00 0.00 0.00 54 1011.7
20191022045610 80 83 3.0 10.0 0.00 0.00 0.00 54 1011.8
20191022045537 80 86 3.0 10.0 0.00 0.00 0.00 54 1011.8
20191022045508 80 127 4.0 10.0 0.00 0.00 0.00 54 1011.8
20191022045400 80 132 8.0 10.0 0.00 0.00 0.00 54 1011.9
20191022045255 80 54 2.0 10.0 0.00 0.00 0.00 55 1011.8
20191022045152 79 46 5.0 10.0 0.00 0.00 0.00 55 1012.0
20191022045048 79 80 3.0 10.0 0.00 0.00 0.00 55 1011.8
20191022045036 80 105 4.0 10.0 0.00 0.00 0.00 55 1011.8
20191022044945 80 67 4.0 10.0 0.00 0.00 0.00 55 1011.8
20191022044843 80 124 6.0 10.0 0.00 0.00 0.00 54 1011.9
20191022044740 80 97 6.0 10.0 0.00 0.00 0.00 54 1011.8
20191022044630 80 90 5.0 10.0 0.00 0.00 0.00 55 1012.0
20191022044530 80 139 8.0 10.0 0.00 0.00 0.00 55 1012.1
20191022044424 80 116 4.0 8.0 0.00 0.00 0.00 55 1011.9
20191022044320 79 107 4.0 9.0 0.00 0.00 0.00 54 1012.1
20191022044217 79 18 2.0 9.0 0.00 0.00 0.00 55 1012.1
20191022044108 79 15 3.0 9.0 0.00 0.00 0.00 55 1011.8
20191022044019 79 353 4.0 9.0 0.00 0.00 0.00 55 1011.9
20191022044005 79 315 4.0 9.0 0.00 0.00 0.00 55 1011.8
20191022043902 80 39 2.0 9.0 0.00 0.00 0.00 55 1012.0
20191022043759 80 48 6.0 9.0 0.00 0.00 0.00 55 1011.8
20191022043656 80 79 3.0 10.0 0.00 0.00 0.00 55 1011.9
20191022043552 80 329 4.0 10.0 0.00 0.00 0.00 55 1012.0
20191022043518 80 23 3.0 10.0 0.00 0.00 0.00 55 1012.0
20191022043450 80 19 4.0 10.0 0.00 0.00 0.00 55 1011.9
20191022043353 79 21 7.0 10.0 0.00 0.00 0.00 56 1012.0
20191022043236 80 139 1.0 10.0 0.00 0.00 0.00 55 1012.1
20191022043134 80 91 6.0 10.0 0.00 0.00 0.00 55 1012.3
20191022043031 80 14 2.0 10.0 0.00 0.00 0.00 54 1012.2
20191022043018 80 32 1.0 10.0 0.00 0.00 0.00 55 1012.2
20191022042927 80 56 5.0 10.0 0.00 0.00 0.00 55 1012.2
20191022042825 80 110 6.0 10.0 0.00 0.00 0.00 55 1012.3
20191022042721 80 89 6.0 10.0 0.00 0.00 0.00 55 1012.2
20191022042618 80 92 5.0 10.0 0.00 0.00 0.00 55 1012.3
20191022042519 80 18 0.0 10.0 0.00 0.00 0.00 55 1012.3
20191022042406 80 19 3.0 10.0 0.00 0.00 0.00 55 1012.3
20191022042303 80 45 5.0 10.0 0.00 0.00 0.00 56 1012.4
20191022042200 80 21 2.0 10.0 0.00 0.00 0.00 55 1012.2
20191022042057 80 100 5.0 10.0 0.00 0.00 0.00 55 1012.4
20191022042009 80 101 7.0 13.0 0.00 0.00 0.00 55 1012.4
20191022041954 80 126 8.0 13.0 0.00 0.00 0.00 55 1012.4
20191022041844 80 129 2.0 13.0 0.00 0.00 0.00 54 1012.4
20191022041741 79 46 2.0 13.0 0.00 0.00 0.00 54 1012.2
20191022041637 79 97 3.0 13.0 0.00 0.00 0.00 54 1012.5
20191022041536 79 108 2.0 13.0 0.00 0.00 0.00 55 1012.3
20191022041507 79 117 4.0 13.0 0.00 0.00 0.00 55 1012.3
20191022041431 79 110 6.0 13.0 0.00 0.00 0.00 55 1012.4
20191022041329 79 55 6.0 13.0 0.00 0.00 0.00 55 1012.4
20191022041226 79 108 4.0 13.0 0.00 0.00 0.00 56 1012.4
20191022041123 79 60 7.0 13.0 0.00 0.00 0.00 56 1012.3
20191022041012 79 107 6.0 11.0 0.00 0.00 0.00 55 1012.7
20191022041001 79 107 6.0 11.0 0.00 0.00 0.00 55 1012.1
20191022040909 79 108 7.0 11.0 0.00 0.00 0.00 55 1012.1
20191022040807 79 116 8.0 11.0 0.00 0.00 0.00 56 1012.3
20191022040704 79 73 6.0 11.0 0.00 0.00 0.00 55 1012.4
20191022040600 79 98 3.0 11.0 0.00 0.00 0.00 56 1012.5
20191022040500 79 119 3.0 11.0 0.00 0.00 0.00 56 1012.7
20191022040355 79 81 5.0 11.0 0.00 0.00 0.00 56 1012.7
20191022040245 79 90 9.0 11.0 0.00 0.00 0.00 57 1012.3
20191022040142 79 73 8.0 11.0 0.00 0.00 0.00 56 1012.5
20191022040039 79 53 9.0 11.0 0.00 0.00 0.00 56 1012.4
20191022035958 79 116 8.0 11.0 0.00 0.00 0.00 56 1012.5
20191022035933 80 116 8.0 11.0 0.00 0.00 0.00 56 1012.5
20191022035831 80 114 4.0 10.0 0.00 0.00 0.00 55 1012.3
20191022035727 79 130 3.0 10.0 0.00 0.00 0.00 55 1012.6
20191022035618 79 11 3.0 10.0 0.00 0.00 0.00 55 1012.4
20191022035514 79 89 7.0 11.0 0.00 0.00 0.00 55 1012.5
20191022035454 79 32 4.0 11.0 0.00 0.00 0.00 55 1012.5
20191022035411 79 53 3.0 11.0 0.00 0.00 0.00 55 1012.5
20191022035309 79 356 4.0 11.0 0.00 0.00 0.00 56 1012.8
20191022035206 79 158 6.0 11.0 0.00 0.00 0.00 56 1012.5
20191022035103 79 357 4.0 11.0 0.00 0.00 0.00 55 1012.7
20191022034953 79 51 4.0 11.0 0.00 0.00 0.00 54 1012.9
20191022034856 79 103 2.0 11.0 0.00 0.00 0.00 55 1012.6
20191022034753 78 179 3.0 11.0 0.00 0.00 0.00 56 1012.6
20191022034651 78 54 6.0 11.0 0.00 0.00 0.00 56 1012.7
20191022034548 78 63 8.0 11.0 0.00 0.00 0.00 56 1012.7
20191022034452 79 50 4.0 9.0 0.00 0.00 0.00 56 1012.7
20191022034437 79 134 2.0 9.0 0.00 0.00 0.00 56 1012.7
20191022034335 79 49 5.0 9.0 0.00 0.00 0.00 56 1012.7
20191022034232 79 50 4.0 9.0 0.00 0.00 0.00 56 1012.7
20191022034128 79 357 5.0 9.0 0.00 0.00 0.00 55 1012.6
20191022034025 79 76 6.0 9.0 0.00 0.00 0.00 56 1012.7
20191022033951 79 51 6.0 9.0 0.00 0.00 0.00 56 1012.8
20191022033923 79 108 4.0 9.0 0.00 0.00 0.00 56 1012.8
20191022033820 79 137 2.0 9.0 0.00 0.00 0.00 55 1012.9
20191022033710 79 70 4.0 9.0 0.00 0.00 0.00 55 1013.1
20191022033607 79 74 5.0 9.0 0.00 0.00 0.00 56 1012.8
20191022033504 79 79 5.0 9.0 0.00 0.00 0.00 56 1012.9
20191022033444 79 141 5.0 9.0 0.00 0.00 0.00 55 1013.0
20191022033403 79 138 1.0 9.0 0.00 0.00 0.00 56 1012.8
20191022033258 79 127 4.0 9.0 0.00 0.00 0.00 56 1012.9
20191022033155 79 70 4.0 9.0 0.00 0.00 0.00 56 1012.9
20191022033051 79 347 4.0 11.0 0.00 0.00 0.00 56 1012.9
20191022032944 79 139 4.0 11.0 0.00 0.00 0.00 55 1012.9
20191022032839 79 112 2.0 11.0 0.00 0.00 0.00 55 1013.1
20191022032735 79 62 5.0 11.0 0.00 0.00 0.00 56 1013.0
20191022032633 78 42 4.0 11.0 0.00 0.00 0.00 56 1013.0
20191022032529 78 63 6.0 11.0 0.00 0.00 0.00 56 1013.0
20191022032441 78 95 4.0 11.0 0.00 0.00 0.00 56 1012.9
20191022032427 78 101 6.0 11.0 0.00 0.00 0.00 57 1012.9
20191022032317 78 96 3.0 11.0 0.00 0.00 0.00 57 1013.0
20191022032214 78 89 5.0 11.0 0.00 0.00 0.00 57 1012.9
20191022032111 78 175 9.0 11.0 0.00 0.00 0.00 57 1012.9
20191022032008 78 127 5.0 11.0 0.00 0.00 0.00 58 1012.9
20191022031940 78 111 4.0 11.0 0.00 0.00 0.00 58 1013.0
20191022031905 78 140 9.0 11.0 0.00 0.00 0.00 58 1013.1
20191022031755 78 9 4.0 11.0 0.00 0.00 0.00 58 1013.1
20191022031652 78 92 7.0 11.0 0.00 0.00 0.00 57 1013.1
20191022031549 78 89 5.0 15.0 0.00 0.00 0.00 58 1013.2
20191022031446 78 85 6.0 15.0 0.00 0.00 0.00 57 1012.9
20191022031432 78 87 7.0 15.0 0.00 0.00 0.00 58 1012.9
20191022031342 78 57 6.0 15.0 0.00 0.00 0.00 58 1013.3
20191022031240 78 107 6.0 15.0 0.00 0.00 0.00 58 1012.9
20191022031137 78 105 4.0 15.0 0.00 0.00 0.00 58 1013.1
20191022031033 78 80 5.0 15.0 0.00 0.00 0.00 58 1013.2
20191022030924 77 91 6.0 15.0 0.00 0.00 0.00 57 1012.9
20191022030821 77 110 7.0 15.0 0.00 0.00 0.00 57 1013.1
20191022030718 77 116 6.0 15.0 0.00 0.00 0.00 58 1013.3
20191022030614 78 95 11.0 14.0 0.00 0.00 0.00 58 1013.1
20191022030512 78 117 4.0 14.0 0.00 0.00 0.00 57 1013.2
20191022030430 78 174 8.0 14.0 0.00 0.00 0.00 58 1013.2
20191022030409 78 80 5.0 13.0 0.00 0.00 0.00 58 1013.2
20191022030307 78 84 6.0 11.0 0.00 0.00 0.00 57 1013.3
20191022030155 78 114 4.0 14.0 0.00 0.00 0.00 58 1013.2
20191022030053 78 119 8.0 14.0 0.00 0.00 0.00 58 1013.1
20191022025950 78 170 8.0 14.0 0.00 0.00 0.00 58 1013.3
20191022025930 78 164 3.0 14.0 0.00 0.00 0.00 58 1013.3
20191022025846 78 98 7.0 14.0 0.00 0.00 0.00 58 1013.2
20191022025743 78 83 3.0 14.0 0.00 0.00 0.00 58 1013.5
20191022025641 78 31 2.0 14.0 0.00 0.00 0.00 59 1013.1
20191022025537 78 82 4.0 14.0 0.00 0.00 0.00 58 1013.3
20191022025436 77 99 5.0 14.0 0.00 0.00 0.00 58 1013.1
20191022025429 77 99 5.0 14.0 0.00 0.00 0.00 59 1013.1
20191022025331 77 71 6.0 14.0 0.00 0.00 0.00 59 1013.5
20191022025221 77 80 9.0 13.0 0.00 0.00 0.00 58 1013.2
20191022025118 77 226 5.0 13.0 0.00 0.00 0.00 59 1013.4
20191022025016 77 50 9.0 13.0 0.00 0.00 0.00 58 1013.6
20191022024928 78 58 4.0 13.0 0.00 0.00 0.00 59 1013.2
20191022024913 78 167 4.0 13.0 0.00 0.00 0.00 59 1013.2
20191022024810 78 65 3.0 15.0 0.00 0.00 0.00 58 1013.5
20191022024707 78 7 4.0 17.0 0.00 0.00 0.00 58 1013.5
20191022024557 77 98 8.0 17.0 0.00 0.00 0.00 58 1013.6
20191022024454 77 51 4.0 17.0 0.00 0.00 0.00 59 1013.4
20191022024426 77 72 6.0 17.0 0.00 0.00 0.00 59 1013.4
20191022024350 77 97 5.0 17.0 0.00 0.00 0.00 59 1013.4
20191022024248 77 147 7.0 17.0 0.00 0.00 0.00 59 1013.4
20191022024145 77 354 7.0 17.0 0.00 0.00 0.00 59 1013.5
20191022024042 77 100 5.0 17.0 0.00 0.00 0.00 59 1013.5
20191022023939 77 92 6.0 17.0 0.00 0.00 0.00 59 1013.6
20191022023919 77 117 13.0 17.0 0.00 0.00 0.00 59 1013.6
20191022023829 76 116 7.0 17.0 0.00 0.00 0.00 60 1013.5
20191022023726 76 65 10.0 17.0 0.00 0.00 0.00 59 1013.4
20191022023623 76 146 7.0 15.0 0.00 0.00 0.00 60 1013.4
20191022023513 76 163 8.0 15.0 0.00 0.00 0.00 59 1013.3
20191022023409 76 140 8.0 15.0 0.00 0.00 0.00 59 1013.3
20191022023307 76 175 8.0 15.0 0.00 0.00 0.00 59 1013.5
20191022023204 77 105 6.0 15.0 0.00 0.00 0.00 59 1013.5
20191022023101 77 121 6.0 15.0 0.00 0.00 0.00 59 1013.5
20191022022958 76 87 6.0 15.0 0.00 0.00 0.00 59 1013.5
20191022022916 76 131 6.0 15.0 0.00 0.00 0.00 60 1013.5
20191022022855 76 81 9.0 15.0 0.00 0.00 0.00 60 1013.6
20191022022751 76 51 5.0 15.0 0.00 0.00 0.00 59 1013.7
20191022022649 76 93 4.0 15.0 0.00 0.00 0.00 59 1013.6
20191022022546 77 89 9.0 15.0 0.00 0.00 0.00 60 1013.7
20191022022442 77 112 6.0 15.0 0.00 0.00 0.00 59 1013.7
20191022022408 77 92 7.0 15.0 0.00 0.00 0.00 59 1013.6
20191022022332 77 128 9.0 15.0 0.00 0.00 0.00 58 1013.6
20191022022229 77 98 9.0 15.0 0.00 0.00 0.00 59 1013.8
20191022022126 77 91 4.0 15.0 0.00 0.00 0.00 58 1013.8
20191022022024 77 87 4.0 15.0 0.00 0.00 0.00 58 1013.5
20191022021921 76 92 4.0 15.0 0.00 0.00 0.00 59 1013.5
20191022021908 76 83 5.0 15.0 0.00 0.00 0.00 59 1013.5
20191022021818 77 41 8.0 15.0 0.00 0.00 0.00 59 1013.9
20191022021713 77 89 8.0 15.0 0.00 0.00 0.00 59 1013.8
20191022021610 77 74 6.0 15.0 0.00 0.00 0.00 59 1013.8
20191022021508 77 141 9.0 15.0 0.00 0.00 0.00 59 1013.9
20191022021406 77 90 6.0 13.0 0.00 0.00 0.00 58 1013.8
20191022021255 77 146 5.0 13.0 0.00 0.00 0.00 59 1013.4
20191022021151 77 41 7.0 14.0 0.00 0.00 0.00 59 1014.0
20191022021048 77 92 4.0 14.0 0.00 0.00 0.00 58 1013.9
20191022020945 77 100 4.0 14.0 0.00 0.00 0.00 58 1013.8
20191022020857 77 102 10.0 14.0 0.00 0.00 0.00 58 1013.8
20191022020841 77 102 10.0 14.0 0.00 0.00 0.00 58 1013.8
20191022020739 77 57 4.0 14.0 0.00 0.00 0.00 58 1013.9
20191022020628 76 68 4.0 14.0 0.00 0.00 0.00 59 1013.9
20191022020525 76 69 5.0 14.0 0.00 0.00 0.00 59 1013.8
20191022020423 76 129 9.0 14.0 0.00 0.00 0.00 59 1014.0
20191022020356 76 101 7.0 14.0 0.00 0.00 0.00 59 1014.2
20191022020313 76 134 10.0 14.0 0.00 0.00 0.00 59 1014.2
20191022020210 76 87 6.0 13.0 0.00 0.00 0.00 59 1013.7
20191022020106 76 135 8.0 14.0 0.00 0.00 0.00 58 1014.0
20191022020005 77 132 9.0 14.0 0.00 0.00 0.00 58 1014.0
20191022015901 77 106 9.0 14.0 0.00 0.00 0.00 58 1014.2
20191022015854 77 106 9.0 14.0 0.00 0.00 0.00 58 1013.9
20191022015758 76 125 8.0 14.0 0.00 0.00 0.00 58 1014.1
20191022015655 76 86 4.0 14.0 0.00 0.00 0.00 59 1013.9
20191022015552 76 173 6.0 14.0 0.00 0.00 0.00 59 1014.0
20191022015448 76 58 5.0 14.0 0.00 0.00 0.00 59 1014.1
20191022015354 76 96 7.0 14.0 0.00 0.00 0.00 60 1013.9
20191022015338 76 70 6.0 14.0 0.00 0.00 0.00 59 1013.9
20191022015236 76 89 8.0 14.0 0.00 0.00 0.00 60 1014.0
20191022015133 76 83 8.0 13.0 0.00 0.00 0.00 59 1014.4
20191022015029 76 113 7.0 13.0 0.00 0.00 0.00 59 1014.0
20191022014927 76 43 7.0 13.0 0.00 0.00 0.00 59 1014.1
20191022014853 76 99 3.0 13.0 0.00 0.00 0.00 59 1014.0
20191022014823 76 99 1.0 13.0 0.00 0.00 0.00 59 1014.0
20191022014721 76 70 7.0 13.0 0.00 0.00 0.00 60 1013.9
20191022014618 76 119 5.0 13.0 0.00 0.00 0.00 59 1013.9
20191022014508 77 138 4.0 13.0 0.00 0.00 0.00 59 1014.2
20191022014405 77 93 7.0 13.0 0.00 0.00 0.00 59 1014.1
20191022014352 77 43 4.0 13.0 0.00 0.00 0.00 59 1014.2
20191022014302 77 51 6.0 13.0 0.00 0.00 0.00 58 1014.2
20191022014159 76 122 4.0 13.0 0.00 0.00 0.00 59 1014.2
20191022014056 76 267 4.0 13.0 0.00 0.00 0.00 58 1014.2
20191022013953 76 85 4.0 13.0 0.00 0.00 0.00 59 1014.2
20191022013844 77 115 7.0 13.0 0.00 0.00 0.00 59 1014.2
20191022013746 77 63 3.0 13.0 0.00 0.00 0.00 58 1014.1
20191022013644 76 112 3.0 13.0 0.00 0.00 0.00 58 1014.1
20191022013534 76 70 3.0 15.0 0.00 0.00 0.00 59 1014.4
20191022013431 76 73 3.0 16.0 0.00 0.00 0.00 58 1014.3
20191022013343 76 111 5.0 16.0 0.00 0.00 0.00 59 1014.2
20191022013327 76 58 4.0 16.0 0.00 0.00 0.00 59 1014.2
20191022013225 76 85 9.0 16.0 0.00 0.00 0.00 59 1014.3
20191022013122 76 71 8.0 16.0 0.00 0.00 0.00 59 1014.4
20191022013019 76 97 5.0 16.0 0.00 0.00 0.00 58 1014.3
20191022012916 75 112 4.0 16.0 0.00 0.00 0.00 58 1014.3
20191022012841 75 331 7.0 16.0 0.00 0.00 0.00 58 1014.5
20191022012812 75 107 7.0 16.0 0.00 0.00 0.00 58 1014.5
20191022012710 76 63 8.0 16.0 0.00 0.00 0.00 58 1014.5
20191022012607 76 70 10.0 16.0 0.00 0.00 0.00 58 1014.7
20191022012504 76 89 14.0 16.0 0.00 0.00 0.00 58 1014.4
20191022012401 76 74 4.0 11.0 0.00 0.00 0.00 58 1014.4
20191022012341 76 41 6.0 11.0 0.00 0.00 0.00 58 1014.4
20191022012258 76 104 5.0 11.0 0.00 0.00 0.00 58 1014.3
20191022012155 76 85 5.0 11.0 0.00 0.00 0.00 57 1014.7
20191022012052 76 91 2.0 11.0 0.00 0.00 0.00 58 1014.5
20191022011949 76 113 6.0 11.0 0.00 0.00 0.00 58 1014.5
20191022011846 76 89 5.0 11.0 0.00 0.00 0.00 57 1014.4
20191022011833 76 35 4.0 11.0 0.00 0.00 0.00 57 1014.4
20191022011743 76 89 4.0 11.0 0.00 0.00 0.00 58 1014.6
20191022011641 76 79 5.0 11.0 0.00 0.00 0.00 59 1014.7
20191022011537 76 97 9.0 11.0 0.00 0.00 0.00 58 1014.5
20191022011427 76 38 7.0 11.0 0.00 0.00 0.00 57 1014.5
20191022011326 76 81 4.0 11.0 0.00 0.00 0.00 58 1014.5
20191022011221 76 94 5.0 11.0 0.00 0.00 0.00 58 1014.6
20191022011117 76 110 6.0 11.0 0.00 0.00 0.00 58 1014.4
20191022011015 76 85 6.0 8.0 0.00 0.00 0.00 59 1014.7
20191022010912 76 118 3.0 8.0 0.00 0.00 0.00 58 1014.4
20191022010823 76 87 3.0 8.0 0.00 0.00 0.00 59 1014.6
20191022010809 76 98 3.0 8.0 0.00 0.00 0.00 59 1014.6
20191022010706 76 127 6.0 8.0 0.00 0.00 0.00 58 1014.5
20191022010556 76 97 3.0 9.0 0.00 0.00 0.00 59 1014.6
20191022010453 76 95 5.0 10.0 0.00 0.00 0.00 60 1014.6
20191022010350 76 65 6.0 10.0 0.00 0.00 0.00 61 1014.7
20191022010324 76 57 3.0 10.0 0.00 0.00 0.00 61 1014.7
20191022010247 76 28 5.0 11.0 0.00 0.00 0.00 61 1014.6
20191022010144 75 138 7.0 11.0 0.00 0.00 0.00 60 1014.6
20191022010041 75 132 4.0 11.0 0.00 0.00 0.00 61 1014.3
20191022005937 75 119 3.0 11.0 0.00 0.00 0.00 61 1014.4
20191022005835 75 156 5.0 13.0 0.00 0.00 0.00 61 1014.6
20191022005815 74 156 5.0 13.0 0.00 0.00 0.00 62 1014.6
20191022005731 74 82 2.0 13.0 0.00 0.00 0.00 62 1014.7
20191022005622 74 59 7.0 13.0 0.00 0.00 0.00 62 1014.6
20191022005518 74 71 6.0 13.0 0.00 0.00 0.00 63 1014.7
20191022005415 75 61 8.0 13.0 0.00 0.00 0.00 63 1014.9
20191022005316 75 117 9.0 13.0 0.00 0.00 0.00 62 1014.9
20191022005308 75 117 9.0 13.0 0.00 0.00 0.00 61 1014.9
20191022005203 74 108 4.0 13.0 0.00 0.00 0.00 63 1014.8
20191022005101 74 94 6.0 13.0 0.00 0.00 0.00 63 1014.7
20191022004957 75 121 6.0 13.0 0.00 0.00 0.00 63 1014.5
20191022004854 75 118 8.0 13.0 0.00 0.00 0.00 63 1014.7
20191022004812 75 87 8.0 13.0 0.00 0.00 0.00 62 1014.7
20191022004750 75 122 5.0 8.0 0.00 0.00 0.00 62 1014.9
20191022004648 75 89 2.0 8.0 0.00 0.00 0.00 63 1014.8
20191022004545 75 72 3.0 9.0 0.00 0.00 0.00 63 1014.8
20191022004441 75 83 4.0 9.0 0.00 0.00 0.00 63 1014.6
20191022004339 75 156 2.0 9.0 0.00 0.00 0.00 63 1014.8
20191022004312 75 84 2.0 9.0 0.00 0.00 0.00 63 1014.8
20191022004236 74 103 1.0 9.0 0.00 0.00 0.00 64 1014.5
20191022004126 74 97 5.0 9.0 0.00 0.00 0.00 63 1014.6
20191022004022 74 77 3.0 9.0 0.00 0.00 0.00 64 1014.7
20191022003920 74 90 5.0 9.0 0.00 0.00 0.00 65 1014.6
20191022003812 74 1 2.0 9.0 0.00 0.00 0.00 65 1014.7
20191022003706 74 87 5.0 9.0 0.00 0.00 0.00 65 1014.7
20191022003603 74 81 2.0 8.0 0.00 0.00 0.00 65 1014.8
20191022003501 74 82 4.0 8.0 0.00 0.00 0.00 66 1014.7
20191022003358 74 104 3.0 8.0 0.00 0.00 0.00 65 1014.8
20191022003309 74 90 2.0 9.0 0.00 0.00 0.00 66 1014.8
20191022003256 74 51 2.0 9.0 0.00 0.00 0.00 66 1014.8
20191022003152 74 21 4.0 9.0 0.00 0.00 0.00 65 1015.0
20191022003049 74 90 2.0 9.0 0.00 0.00 0.00 66 1014.9
20191022002946 74 60 1.0 9.0 0.00 0.00 0.00 66 1014.8
20191022002843 74 90 2.0 9.0 0.00 0.00 0.00 65 1014.8
20191022002808 73 26 4.0 9.0 0.00 0.00 0.00 66 1014.8
20191022002732 73 90 4.0 9.0 0.00 0.00 0.00 66 1014.7
20191022002630 73 127 3.0 9.0 0.00 0.00 0.00 66 1014.7
20191022002528 73 85 3.0 9.0 0.00 0.00 0.00 67 1014.9
20191022002424 73 81 2.0 9.0 0.00 0.00 0.00 67 1014.8
20191022002321 73 92 3.0 9.0 0.00 0.00 0.00 67 1014.9
20191022002308 73 29 2.0 9.0 0.00 0.00 0.00 67 1014.9
20191022002218 73 126 4.0 9.0 0.00 0.00 0.00 67 1014.9
20191022002108 73 105 2.0 8.0 0.00 0.00 0.00 67 1014.8
20191022002005 73 95 4.0 8.0 0.00 0.00 0.00 66 1014.9
20191022001902 73 32 1.0 8.0 0.00 0.00 0.00 67 1014.9
20191022001803 73 76 4.0 8.0 0.00 0.00 0.00 67 1014.8
20191022001656 73 42 4.0 8.0 0.00 0.00 0.00 67 1014.8
20191022001553 73 113 2.0 8.0 0.00 0.00 0.00 67 1014.9
20191022001450 73 111 4.0 8.0 0.00 0.00 0.00 67 1014.8
20191022001347 73 132 2.0 8.0 0.00 0.00 0.00 68 1014.8
20191022001259 73 87 5.0 8.0 0.00 0.00 0.00 67 1014.7
20191022001246 73 118 4.0 8.0 0.00 0.00 0.00 67 1014.7
20191022001134 73 106 2.0 8.0 0.00 0.00 0.00 68 1014.5
20191022001031 73 87 2.0 8.0 0.00 0.00 0.00 68 1014.8
20191022000929 72 70 1.0 8.0 0.00 0.00 0.00 68 1014.5
20191022000825 72 70 1.0 8.0 0.00 0.00 0.00 69 1014.6
20191022000758 72 75 2.0 8.0 0.00 0.00 0.00 69 1014.5
20191022000722 72 100 3.0 8.0 0.00 0.00 0.00 70 1014.5
20191022000619 72 128 3.0 8.0 0.00 0.00 0.00 71 1014.8
20191022000516 72 131 3.0 8.0 0.00 0.00 0.00 70 1014.4
20191022000413 72 116 6.0 8.0 0.00 0.00 0.00 70 1014.5
20191022000310 71 80 2.0 7.0 0.00 0.00 0.00 71 1014.6
20191022000257 71 85 3.0 7.0 0.00 0.00 0.00 71 1014.5
20191022000207 71 14 1.0 7.0 0.00 0.00 0.00 71 1014.5
20191022000103 71 97 3.0 7.0 0.00 0.00 0.00 71 1014.6
20191022000001 71 98 4.0 7.0 0.00 0.00 0.00 71 1014.7
20191021235858 71 98 2.0 7.0 0.00 0.00 0.00 71 1014.5
20191021235757 71 88 2.0 7.0 0.00 0.00 0.00 71 1014.5
20191021235651 71 152 4.0 9.0 0.00 0.00 0.00 71 1014.5
20191021235549 71 125 6.0 9.0 0.00 0.00 0.00 71 1014.2
20191021235446 72 46 2.0 9.0 0.00 0.00 0.00 71 1014.6
20191021235343 72 95 5.0 9.0 0.00 0.00 0.00 71 1014.3
20191021235255 72 90 3.0 9.0 0.00 0.00 0.00 71 1014.5
20191021235239 72 90 3.0 9.0 0.00 0.00 0.00 70 1014.5
20191021235139 72 93 2.0 9.0 0.00 0.00 0.00 70 1014.4
20191021235034 71 87 4.0 9.0 0.00 0.00 0.00 71 1014.5
20191021234923 71 56 2.0 9.0 0.00 0.00 0.00 71 1014.4
20191021234820 71 85 2.0 9.0 0.00 0.00 0.00 71 1014.3
20191021234753 71 101 3.0 9.0 0.00 0.00 0.00 71 1014.5
20191021234718 71 85 7.0 9.0 0.00 0.00 0.00 71 1014.5
20191021234614 71 108 3.0 8.0 0.00 0.00 0.00 72 1014.3
20191021234512 71 105 2.0 8.0 0.00 0.00 0.00 71 1014.2
20191021234408 71 117 3.0 8.0 0.00 0.00 0.00 71 1014.2
20191021234306 72 121 4.0 7.0 0.00 0.00 0.00 71 1014.3
20191021234252 72 154 3.0 7.0 0.00 0.00 0.00 71 1014.3
20191021234155 72 24 3.0 4.0 0.00 0.00 0.00 70 1014.2
20191021234052 72 138 3.0 4.0 0.00 0.00 0.00 70 1014.3
20191021233950 72 82 2.0 4.0 0.00 0.00 0.00 70 1014.1
20191021233847 71 101 3.0 4.0 0.00 0.00 0.00 71 1014.2
20191021233752 71 135 4.0 4.0 0.00 0.00 0.00 71 1014.3
20191021233744 71 135 4.0 4.0 0.00 0.00 0.00 71 1014.3
20191021233642 72 115 3.0 4.0 0.00 0.00 0.00 71 1014.4
20191021233538 72 36 3.0 4.0 0.00 0.00 0.00 71 1014.2
20191021233435 72 177 2.0 4.0 0.00 0.00 0.00 71 1014.1
20191021233331 71 76 2.0 4.0 0.00 0.00 0.00 71 1014.2
20191021233250 71 89 1.0 4.0 0.00 0.00 0.00 71 1014.1
20191021233222 71 141 1.0 4.0 0.00 0.00 0.00 71 1014.1
20191021233112 71 104 3.0 4.0 0.00 0.00 0.00 71 1014.0
20191021233009 71 107 1.0 4.0 0.00 0.00 0.00 71 1014.2
20191021232906 71 82 1.0 4.0 0.00 0.00 0.00 72 1014.2
20191021232803 71 96 3.0 4.0 0.00 0.00 0.00 72 1014.2
20191021232749 71 81 3.0 4.0 0.00 0.00 0.00 72 1014.2
20191021232700 71 121 1.0 4.0 0.00 0.00 0.00 72 1014.0
20191021232557 71 105 3.0 4.0 0.00 0.00 0.00 73 1014.1
20191021232453 71 138 1.0 4.0 0.00 0.00 0.00 73 1014.0
20191021232351 70 53 2.0 4.0 0.00 0.00 0.00 73 1014.1
20191021232251 70 73 1.0 4.0 0.00 0.00 0.00 74 1014.0
20191021232145 70 102 2.0 4.0 0.00 0.00 0.00 74 1014.0
20191021232041 70 78 2.0 4.0 0.00 0.00 0.00 73 1014.1
20191021231938 70 76 1.0 4.0 0.00 0.00 0.00 73 1014.1
20191021231827 70 75 0.0 4.0 0.00 0.00 0.00 74 1014.0
20191021231739 70 74 1.0 4.0 0.00 0.00 0.00 74 1014.1
20191021231725 70 71 2.0 4.0 0.00 0.00 0.00 74 1014.1
20191021231622 70 70 3.0 4.0 0.00 0.00 0.00 74 1014.1
20191021231519 70 28 1.0 4.0 0.00 0.00 0.00 74 1014.1
20191021231415 70 75 1.0 6.0 0.00 0.00 0.00 74 1014.0
20191021231313 70 50 3.0 6.0 0.00 0.00 0.00 74 1014.1
20191021231239 70 63 0.0 6.0 0.00 0.00 0.00 73 1014.1
20191021231209 70 95 0.0 6.0 0.00 0.00 0.00 74 1014.1
20191021231109 70 93 3.0 6.0 0.00 0.00 0.00 74 1014.3
20191021230957 70 104 2.0 6.0 0.00 0.00 0.00 74 1013.9
20191021230853 70 77 1.0 6.0 0.00 0.00 0.00 75 1014.2
20191021230751 69 101 2.0 6.0 0.00 0.00 0.00 75 1014.1
20191021230738 69 79 2.0 6.0 0.00 0.00 0.00 75 1014.1
20191021230648 69 129 1.0 6.0 0.00 0.00 0.00 76 1014.1
20191021230545 69 44 1.0 7.0 0.00 0.00 0.00 75 1013.9
20191021230442 69 92 4.0 7.0 0.00 0.00 0.00 75 1014.1
20191021230338 69 39 1.0 7.0 0.00 0.00 0.00 76 1014.0
20191021230237 69 79 3.0 7.0 0.00 0.00 0.00 75 1013.8
20191021230132 69 105 1.0 7.0 0.00 0.00 0.00 75 1014.1
20191021230022 69 122 1.0 7.0 0.00 0.00 0.00 76 1014.1
20191021225918 69 83 4.0 7.0 0.00 0.00 0.00 76 1014.1
20191021225815 69 69 3.0 7.0 0.00 0.00 0.00 76 1014.1
20191021225728 69 109 2.0 7.0 0.00 0.00 0.00 76 1013.9
20191021225713 69 70 4.0 7.0 0.00 0.00 0.00 76 1013.9
20191021225609 69 48 3.0 6.0 0.00 0.00 0.00 76 1014.0
20191021225507 69 105 4.0 6.0 0.00 0.00 0.00 76 1014.0
20191021225403 69 66 2.0 6.0 0.00 0.00 0.00 76 1014.0
20191021225254 69 138 4.0 6.0 0.00 0.00 0.00 76 1014.2
20191021225226 69 143 2.0 6.0 0.00 0.00 0.00 76 1014.2
20191021225151 69 72 3.0 6.0 0.00 0.00 0.00 76 1014.1
20191021225047 69 111 3.0 6.0 0.00 0.00 0.00 76 1014.1
20191021224945 69 137 3.0 6.0 0.00 0.00 0.00 76 1014.1
20191021224841 69 63 1.0 6.0 0.00 0.00 0.00 77 1013.9
20191021224739 69 86 5.0 6.0 0.00 0.00 0.00 76 1014.1
20191021224718 69 59 3.0 6.0 0.00 0.00 0.00 76 1014.1
20191021224636 69 108 4.0 6.0 0.00 0.00 0.00 76 1014.1
20191021224525 69 140 4.0 6.0 0.00 0.00 0.00 76 1013.8
20191021224422 69 89 2.0 7.0 0.00 0.00 0.00 76 1014.0
20191021224319 68 72 4.0 7.0 0.00 0.00 0.00 77 1013.9
20191021224209 68 118 1.0 7.0 0.00 0.00 0.00 77 1013.9
20191021224107 68 69 1.0 7.0 0.00 0.00 0.00 77 1013.9
20191021224005 68 101 5.0 7.0 0.00 0.00 0.00 77 1014.0
20191021223900 68 85 3.0 7.0 0.00 0.00 0.00 77 1014.0
20191021223758 68 44 3.0 7.0 0.00 0.00 0.00 77 1013.9
20191021223716 68 106 4.0 7.0 0.00 0.00 0.00 78 1013.9
20191021223655 68 46 2.0 7.0 0.00 0.00 0.00 78 1013.9
20191021223552 68 44 1.0 7.0 0.00 0.00 0.00 78 1013.9
20191021223449 68 99 5.0 7.0 0.00 0.00 0.00 78 1014.0
20191021223338 68 65 1.0 6.0 0.00 0.00 0.00 78 1013.7
20191021223236 67 53 1.0 6.0 0.00 0.00 0.00 78 1013.9
20191021223208 67 82 1.0 6.0 0.00 0.00 0.00 79 1013.9
20191021223133 67 96 1.0 4.0 0.00 0.00 0.00 79 1013.8
20191021223030 67 64 3.0 6.0 0.00 0.00 0.00 79 1014.0
20191021222926 67 104 2.0 7.0 0.00 0.00 0.00 79 1013.8
20191021222824 67 138 2.0 7.0 0.00 0.00 0.00 79 1013.7
20191021222721 67 115 2.0 7.0 0.00 0.00 0.00 79 1013.8
20191021222708 67 107 2.0 7.0 0.00 0.00 0.00 79 1013.8
20191021222618 67 128 2.0 7.0 0.00 0.00 0.00 79 1013.9
20191021222508 67 77 2.0 7.0 0.00 0.00 0.00 79 1013.8
20191021222406 67 125 2.0 7.0 0.00 0.00 0.00 79 1013.7
20191021222302 67 85 1.0 7.0 0.00 0.00 0.00 79 1013.9
20191021222201 67 157 2.0 7.0 0.00 0.00 0.00 79 1013.8
20191021222057 67 149 4.0 7.0 0.00 0.00 0.00 79 1014.0
20191021221953 68 156 1.0 6.0 0.00 0.00 0.00 79 1013.8
20191021221850 68 107 2.0 6.0 0.00 0.00 0.00 78 1013.7
20191021221747 68 102 1.0 6.0 0.00 0.00 0.00 78 1013.7
20191021221644 68 138 2.0 6.0 0.00 0.00 0.00 78 1013.8
20191021221534 68 60 2.0 6.0 0.00 0.00 0.00 78 1013.9
20191021221431 68 57 1.0 6.0 0.00 0.00 0.00 78 1013.8
20191021221328 67 70 1.0 6.0 0.00 0.00 0.00 78 1013.7
20191021221225 67 82 1.0 6.0 0.00 0.00 0.00 78 1013.7
20191021221157 67 57 1.0 6.0 0.00 0.00 0.00 78 1013.8
20191021221122 68 66 1.0 6.0 0.00 0.00 0.00 78 1013.8
20191021221019 67 45 4.0 6.0 0.00 0.00 0.00 78 1013.7
20191021220915 67 36 2.0 6.0 0.00 0.00 0.00 78 1013.8
20191021220806 67 47 2.0 6.0 0.00 0.00 0.00 78 1013.7
20191021220656 67 34 1.0 6.0 0.00 0.00 0.00 78 1013.8
20191021220600 67 92 1.0 6.0 0.00 0.00 0.00 78 1013.9
20191021220457 67 44 1.0 6.0 0.00 0.00 0.00 78 1013.7
20191021220354 67 72 3.0 6.0 0.00 0.00 0.00 79 1014.0
20191021220251 67 49 2.0 6.0 0.00 0.00 0.00 79 1013.9
20191021220156 67 32 1.0 6.0 0.00 0.00 0.00 79 1013.8
20191021220149 67 32 1.0 6.0 0.00 0.00 0.00 79 1013.8
20191021220038 67 43 2.0 7.0 0.00 0.00 0.00 79 1013.7
20191021215935 67 75 1.0 8.0 0.00 0.00 0.00 79 1013.8
20191021215832 67 43 2.0 8.0 0.00 0.00 0.00 79 1013.9
20191021215729 67 68 2.0 8.0 0.00 0.00 0.00 79 1013.9
20191021215654 67 77 2.0 8.0 0.00 0.00 0.00 79 1013.7
20191021215625 67 100 0.0 8.0 0.00 0.00 0.00 79 1013.7
20191021215516 67 40 2.0 8.0 0.00 0.00 0.00 79 1013.6
20191021215413 67 33 1.0 8.0 0.00 0.00 0.00 79 1013.7
20191021215310 67 93 1.0 8.0 0.00 0.00 0.00 79 1013.7
20191021215206 67 92 2.0 8.0 0.00 0.00 0.00 79 1013.7
20191021215148 67 94 3.0 8.0 0.00 0.00 0.00 79 1013.7
20191021215104 67 102 4.0 8.0 0.00 0.00 0.00 79 1013.7
20191021215001 67 75 3.0 7.0 0.00 0.00 0.00 79 1013.5
20191021214858 67 126 4.0 7.0 0.00 0.00 0.00 79 1013.7
20191021214754 67 44 2.0 7.0 0.00 0.00 0.00 79 1013.5
20191021214647 67 30 1.0 7.0 0.00 0.00 0.00 79 1013.5
20191021214541 67 102 3.0 7.0 0.00 0.00 0.00 79 1013.6
20191021214440 67 84 5.0 7.0 0.00 0.00 0.00 79 1013.6
20191021214336 67 351 2.0 7.0 0.00 0.00 0.00 79 1013.6
20191021214232 67 49 4.0 7.0 0.00 0.00 0.00 79 1013.4
20191021214146 67 90 2.0 8.0 0.00 0.00 0.00 79 1013.4
20191021214129 67 31 1.0 8.0 0.00 0.00 0.00 79 1013.4
20191021214020 67 85 2.0 8.0 0.00 0.00 0.00 79 1013.7
20191021213916 67 72 2.0 8.0 0.00 0.00 0.00 79 1013.5
20191021213814 67 58 3.0 8.0 0.00 0.00 0.00 79 1013.3
20191021213711 67 60 2.0 8.0 0.00 0.00 0.00 79 1013.5
20191021213643 67 84 3.0 8.0 0.00 0.00 0.00 79 1013.8
20191021213608 67 66 4.0 8.0 0.00 0.00 0.00 79 1013.8
20191021213505 67 59 3.0 8.0 0.00 0.00 0.00 79 1013.7
20191021213355 67 105 3.0 8.0 0.00 0.00 0.00 79 1013.4
20191021213252 67 92 1.0 8.0 0.00 0.00 0.00 79 1013.6
20191021213137 67 102 2.0 7.0 0.00 0.00 0.00 79 1013.7
20191021213046 68 80 4.0 7.0 0.00 0.00 0.00 79 1013.6
20191021212942 68 79 4.0 7.0 0.00 0.00 0.00 79 1013.7
20191021212840 68 60 3.0 7.0 0.00 0.00 0.00 79 1013.4
20191021212736 68 68 3.0 7.0 0.00 0.00 0.00 79 1013.4
20191021212636 68 101 1.0 7.0 0.00 0.00 0.00 78 1013.3
20191021212530 68 100 2.0 7.0 0.00 0.00 0.00 78 1013.4
20191021212428 68 70 4.0 7.0 0.00 0.00 0.00 78 1013.2
20191021212318 68 20 2.0 7.0 0.00 0.00 0.00 78 1013.5
20191021212215 68 79 3.0 7.0 0.00 0.00 0.00 78 1013.4
20191021212111 68 78 4.0 7.0 0.00 0.00 0.00 78 1013.4
20191021212009 68 97 5.0 7.0 0.00 0.00 0.00 78 1013.4
20191021211859 68 69 2.0 4.0 0.00 0.00 0.00 78 1013.5
20191021211755 68 101 2.0 4.0 0.00 0.00 0.00 78 1013.3
20191021211653 68 94 2.0 4.0 0.00 0.00 0.00 78 1013.6
20191021211626 68 84 2.0 6.0 0.00 0.00 0.00 78 1013.6
20191021211550 68 39 1.0 6.0 0.00 0.00 0.00 78 1013.4
20191021211447 68 63 2.0 6.0 0.00 0.00 0.00 78 1013.4
20191021211343 68 73 3.0 6.0 0.00 0.00 0.00 78 1013.2
20191021211240 68 82 3.0 6.0 0.00 0.00 0.00 78 1013.4
20191021211126 68 79 1.0 6.0 0.00 0.00 0.00 78 1013.3
20191021211036 68 34 1.0 6.0 0.00 0.00 0.00 78 1013.4
20191021210931 68 127 3.0 6.0 0.00 0.00 0.00 78 1013.3
20191021210822 68 64 0.0 6.0 0.00 0.00 0.00 78 1013.4
20191021210719 68 35 1.0 6.0 0.00 0.00 0.00 78 1013.2
20191021210618 68 57 1.0 4.0 0.00 0.00 0.00 78 1013.3
20191021210512 68 81 3.0 6.0 0.00 0.00 0.00 78 1013.4
20191021210409 68 111 1.0 6.0 0.00 0.00 0.00 78 1013.3
20191021210307 68 100 1.0 6.0 0.00 0.00 0.00 78 1013.3
20191021210203 68 93 1.0 6.0 0.00 0.00 0.00 78 1013.5
20191021210118 68 121 1.0 6.0 0.00 0.00 0.00 77 1013.3
20191021210054 68 85 1.0 6.0 0.00 0.00 0.00 77 1013.2
20191021205951 68 142 3.0 6.0 0.00 0.00 0.00 77 1013.3
20191021205848 68 85 0.0 6.0 0.00 0.00 0.00 77 1013.4
20191021205745 68 91 1.0 6.0 0.00 0.00 0.00 77 1013.1
20191021205641 68 90 1.0 6.0 0.00 0.00 0.00 77 1013.1
20191021205607 68 82 2.0 6.0 0.00 0.00 0.00 77 1013.3
20191021205538 68 100 2.0 4.0 0.00 0.00 0.00 77 1013.3
20191021205428 68 33 1.0 4.0 0.00 0.00 0.00 77 1013.2
20191021205326 68 23 0.0 4.0 0.00 0.00 0.00 77 1013.3
20191021205216 68 68 0.0 4.0 0.00 0.00 0.00 77 1013.0
20191021205115 68 27 0.0 4.0 0.00 0.00 0.00 77 1013.3
20191021205108 68 27 1.0 4.0 0.00 0.00 0.00 77 1013.3
20191021205010 68 27 0.0 4.0 0.00 0.00 0.00 77 1013.2
20191021204907 68 23 0.0 4.0 0.00 0.00 0.00 77 1013.2
20191021204804 68 29 2.0 4.0 0.00 0.00 0.00 76 1012.9
20191021204700 68 58 1.0 4.0 0.00 0.00 0.00 76 1013.2
20191021204605 68 75 1.0 4.0 0.00 0.00 0.00 77 1013.2
20191021204558 68 75 1.0 4.0 0.00 0.00 0.00 77 1013.1
20191021204455 68 77 0.0 4.0 0.00 0.00 0.00 77 1013.2
20191021204351 68 19 3.0 4.0 0.00 0.00 0.00 76 1013.2
20191021204249 68 25 0.0 3.0 0.00 0.00 0.00 77 1013.2
20191021204146 68 71 0.0 3.0 0.00 0.00 0.00 77 1013.1
20191021204107 68 85 1.0 3.0 0.00 0.00 0.00 77 1013.1
20191021204043 68 64 1.0 3.0 0.00 0.00 0.00 77 1013.2
20191021203940 68 56 1.0 3.0 0.00 0.00 0.00 77 1013.3
20191021203830 68 65 1.0 3.0 0.00 0.00 0.00 76 1013.2
20191021203727 68 27 0.0 3.0 0.00 0.00 0.00 76 1013.2
20191021203623 68 54 0.0 3.0 0.00 0.00 0.00 76 1013.2
20191021203603 68 44 1.0 3.0 0.00 0.00 0.00 76 1013.2
20191021203521 68 55 1.0 4.0 0.00 0.00 0.00 76 1013.2
20191021203418 69 80 2.0 4.0 0.00 0.00 0.00 76 1013.1
20191021203308 69 103 2.0 4.0 0.00 0.00 0.00 76 1013.2
20191021203204 69 80 2.0 4.0 0.00 0.00 0.00 76 1013.1
20191021203106 69 92 1.0 4.0 0.00 0.00 0.00 76 1013.1
20191021202959 69 87 0.0 4.0 0.00 0.00 0.00 76 1013.4
20191021202856 69 107 1.0 4.0 0.00 0.00 0.00 76 1013.2
20191021202752 69 45 0.0 4.0 0.00 0.00 0.00 76 1013.3
20191021202650 69 39 1.0 4.0 0.00 0.00 0.00 76 1013.3
20191021202601 69 30 2.0 4.0 0.00 0.00 0.00 76 1013.3
20191021202547 69 30 2.0 4.0 0.00 0.00 0.00 76 1013.2
20191021202436 69 13 2.0 4.0 0.00 0.00 0.00 76 1013.2
20191021202334 69 36 0.0 4.0 0.00 0.00 0.00 76 1013.3
20191021202230 69 36 0.0 4.0 0.00 0.00 0.00 76 1013.2
20191021202128 69 49 1.0 4.0 0.00 0.00 0.00 76 1013.0
20191021202102 69 32 2.0 4.0 0.00 0.00 0.00 76 1013.2
20191021202024 69 30 2.0 4.0 0.00 0.00 0.00 76 1013.2
20191021201923 69 45 3.0 4.0 0.00 0.00 0.00 76 1013.1
20191021201817 69 94 2.0 4.0 0.00 0.00 0.00 76 1013.1
20191021201715 69 29 3.0 4.0 0.00 0.00 0.00 76 1012.9
20191021201606 69 92 0.0 4.0 0.00 0.00 0.00 76 1013.1
20191021201559 69 92 0.0 4.0 0.00 0.00 0.00 76 1013.1
20191021201502 69 93 2.0 4.0 0.00 0.00 0.00 77 1013.1
20191021201359 69 58 1.0 4.0 0.00 0.00 0.00 77 1013.0
20191021201256 69 68 2.0 4.0 0.00 0.00 0.00 77 1013.0
20191021201153 69 66 1.0 4.0 0.00 0.00 0.00 77 1013.0
20191021201100 69 60 0.0 4.0 0.00 0.00 0.00 76 1013.2
20191021201049 69 59 2.0 4.0 0.00 0.00 0.00 76 1013.2
20191021200947 69 90 1.0 4.0 0.00 0.00 0.00 76 1013.1
20191021200837 69 89 1.0 4.0 0.00 0.00 0.00 76 1013.0
20191021200734 69 44 3.0 4.0 0.00 0.00 0.00 76 1013.1
20191021200632 69 28 1.0 6.0 0.00 0.00 0.00 76 1013.1
20191021200556 69 80 2.0 6.0 0.00 0.00 0.00 76 1013.1
20191021200526 69 82 2.0 6.0 0.00 0.00 0.00 76 1013.1
20191021200424 69 60 1.0 6.0 0.00 0.00 0.00 76 1013.0
20191021200320 69 111 1.0 6.0 0.00 0.00 0.00 76 1013.2
20191021200210 69 58 3.0 6.0 0.00 0.00 0.00 76 1013.1
20191021200106 69 35 3.0 6.0 0.00 0.00 0.00 76 1013.2
20191021200056 69 37 2.0 6.0 0.00 0.00 0.00 76 1013.2
20191021200006 69 44 2.0 6.0 0.00 0.00 0.00 76 1013.2
20191021195901 69 66 1.0 6.0 0.00 0.00 0.00 76 1013.0
20191021195757 69 81 1.0 6.0 0.00 0.00 0.00 76 1013.1
20191021195655 69 100 1.0 4.0 0.00 0.00 0.00 76 1012.9
20191021195554 69 30 1.0 4.0 0.00 0.00 0.00 76 1013.2
20191021195441 69 62 2.0 3.0 0.00 0.00 0.00 76 1013.2
20191021195339 69 55 3.0 3.0 0.00 0.00 0.00 76 1013.2
20191021195236 69 79 2.0 3.0 0.00 0.00 0.00 76 1013.4
20191021195133 69 48 3.0 3.0 0.00 0.00 0.00 76 1013.0
20191021195030 69 27 0.0 3.0 0.00 0.00 0.00 76 1013.2
20191021194926 69 79 0.0 3.0 0.00 0.00 0.00 76 1013.2
20191021194824 69 42 1.0 3.0 0.00 0.00 0.00 76 1013.1
20191021194721 69 57 1.0 4.0 0.00 0.00 0.00 76 1013.1
20191021194617 69 21 2.0 4.0 0.00 0.00 0.00 76 1013.1
20191021194543 69 36 2.0 4.0 0.00 0.00 0.00 76 1013.1
20191021194515 69 69 0.0 4.0 0.00 0.00 0.00 77 1013.1
20191021194404 68 92 2.0 6.0 0.00 0.00 0.00 77 1013.1
20191021194302 68 130 1.0 6.0 0.00 0.00 0.00 77 1013.2
20191021194158 68 61 2.0 6.0 0.00 0.00 0.00 77 1013.2
20191021194044 68 81 1.0 6.0 0.00 0.00 0.00 77 1013.2
20191021193955 68 80 0.0 6.0 0.00 0.00 0.00 77 1013.0
20191021193849 68 64 2.0 6.0 0.00 0.00 0.00 77 1013.1
20191021193739 68 22 3.0 6.0 0.00 0.00 0.00 77 1013.2
20191021193637 68 37 2.0 6.0 0.00 0.00 0.00 77 1013.1
20191021193536 68 21 1.0 6.0 0.00 0.00 0.00 77 1013.0
20191021193430 68 71 5.0 6.0 0.00 0.00 0.00 77 1012.9
20191021193328 68 30 1.0 3.0 0.00 0.00 0.00 77 1012.9
20191021193224 68 65 1.0 3.0 0.00 0.00 0.00 77 1012.8
20191021193121 68 29 2.0 3.0 0.00 0.00 0.00 77 1012.9
20191021193035 68 49 1.0 3.0 0.00 0.00 0.00 77 1013.1
20191021193019 68 28 2.0 3.0 0.00 0.00 0.00 77 1013.1
20191021192915 68 93 1.0 4.0 0.00 0.00 0.00 77 1013.2
20191021192806 68 33 1.0 4.0 0.00 0.00 0.00 77 1013.1
20191021192703 68 47 1.0 4.0 0.00 0.00 0.00 77 1012.7
20191021192600 68 78 0.0 4.0 0.00 0.00 0.00 77 1013.1
20191021192526 68 50 1.0 4.0 0.00 0.00 0.00 77 1013.1
20191021192456 68 78 1.0 4.0 0.00 0.00 0.00 77 1013.0
20191021192354 68 89 1.0 4.0 0.00 0.00 0.00 77 1013.0
20191021192251 68 9 1.0 4.0 0.00 0.00 0.00 77 1013.1
20191021192147 69 57 1.0 4.0 0.00 0.00 0.00 76 1012.9
20191021192038 68 38 2.0 4.0 0.00 0.00 0.00 77 1013.0
20191021192027 68 39 1.0 4.0 0.00 0.00 0.00 76 1013.0
20191021191937 68 57 3.0 4.0 0.00 0.00 0.00 77 1013.0
20191021191832 68 78 1.0 3.0 0.00 0.00 0.00 77 1013.0
20191021191728 68 58 1.0 4.0 0.00 0.00 0.00 77 1012.9
20191021191626 68 45 0.0 6.0 0.00 0.00 0.00 77 1013.1
20191021191523 68 111 1.0 6.0 0.00 0.00 0.00 77 1013.0
20191021191516 68 112 1.0 6.0 0.00 0.00 0.00 77 1013.0
20191021191420 68 38 1.0 6.0 0.00 0.00 0.00 77 1013.1
20191021191310 68 74 1.0 6.0 0.00 0.00 0.00 77 1013.1
20191021191207 68 119 2.0 6.0 0.00 0.00 0.00 77 1013.2
20191021191104 68 71 1.0 6.0 0.00 0.00 0.00 77 1013.0
20191021191018 68 45 2.0 6.0 0.00 0.00 0.00 77 1012.8
20191021191001 68 71 2.0 6.0 0.00 0.00 0.00 77 1012.8
20191021190857 68 101 2.0 6.0 0.00 0.00 0.00 77 1013.1
20191021190754 68 80 3.0 6.0 0.00 0.00 0.00 77 1013.1
20191021190650 68 91 4.0 6.0 0.00 0.00 0.00 77 1013.1
20191021190540 68 82 4.0 7.0 0.00 0.00 0.00 77 1013.0
20191021190514 68 131 2.0 7.0 0.00 0.00 0.00 77 1013.0
20191021190438 68 67 2.0 7.0 0.00 0.00 0.00 77 1013.0
20191021190336 68 61 1.0 7.0 0.00 0.00 0.00 77 1012.8
20191021190232 68 61 1.0 7.0 0.00 0.00 0.00 77 1013.1
20191021190127 68 68 1.0 7.0 0.00 0.00 0.00 77 1012.9
20191021190023 68 31 1.0 7.0 0.00 0.00 0.00 77 1012.8
20191021190013 68 23 2.0 7.0 0.00 0.00 0.00 77 1012.8
20191021185923 68 63 3.0 7.0 0.00 0.00 0.00 77 1013.0
20191021185818 68 36 1.0 7.0 0.00 0.00 0.00 77 1012.9
20191021185714 68 128 1.0 7.0 0.00 0.00 0.00 77 1013.0
20191021185605 68 92 4.0 7.0 0.00 0.00 0.00 77 1013.1
20191021185510 68 34 1.0 6.0 0.00 0.00 0.00 77 1012.8
20191021185501 68 69 2.0 6.0 0.00 0.00 0.00 77 1012.8
20191021185359 68 98 1.0 6.0 0.00 0.00 0.00 77 1013.1
20191021185256 68 98 2.0 6.0 0.00 0.00 0.00 77 1012.8
20191021185153 68 79 3.0 6.0 0.00 0.00 0.00 77 1013.1
20191021185050 68 96 2.0 6.0 0.00 0.00 0.00 77 1013.2
20191021185010 68 42 2.0 6.0 0.00 0.00 0.00 77 1013.2
20191021184946 68 28 1.0 6.0 0.00 0.00 0.00 77 1013.0
20191021184836 68 106 1.0 6.0 0.00 0.00 0.00 77 1013.0
20191021184734 68 77 4.0 6.0 0.00 0.00 0.00 77 1013.0
20191021184631 68 129 3.0 4.0 0.00 0.00 0.00 77 1012.9
20191021184527 68 70 2.0 4.0 0.00 0.00 0.00 77 1012.7
20191021184507 68 88 1.0 4.0 0.00 0.00 0.00 77 1012.7
20191021184425 68 91 1.0 7.0 0.00 0.00 0.00 77 1012.9
20191021184322 68 89 0.0 7.0 0.00 0.00 0.00 77 1012.8
20191021184219 68 85 1.0 7.0 0.00 0.00 0.00 77 1012.9
20191021184109 68 104 2.0 7.0 0.00 0.00 0.00 77 1012.9
20191021184011 68 72 2.0 7.0 0.00 0.00 0.00 77 1013.0
20191021183903 69 104 2.0 7.0 0.00 0.00 0.00 77 1013.0
20191021183800 69 79 2.0 7.0 0.00 0.00 0.00 77 1012.8
20191021183656 69 83 1.0 7.0 0.00 0.00 0.00 77 1012.9
20191021183553 69 78 2.0 7.0 0.00 0.00 0.00 77 1013.0
20191021183506 69 92 5.0 7.0 0.00 0.00 0.00 77 1013.0
20191021183451 69 92 5.0 7.0 0.00 0.00 0.00 77 1012.8
20191021183348 69 69 3.0 7.0 0.00 0.00 0.00 77 1012.8
20191021183238 69 88 2.0 7.0 0.00 0.00 0.00 77 1012.9
20191021183134 69 53 2.0 7.0 0.00 0.00 0.00 77 1012.7
20191021183031 69 61 2.0 7.0 0.00 0.00 0.00 77 1012.9
20191021183007 69 80 3.0 7.0 0.00 0.00 0.00 77 1012.9
20191021182929 69 85 4.0 7.0 0.00 0.00 0.00 77 1012.7
20191021182826 68 67 5.0 7.0 0.00 0.00 0.00 77 1012.8
20191021182722 68 117 1.0 7.0 0.00 0.00 0.00 77 1012.9
20191021182620 68 74 3.0 7.0 0.00 0.00 0.00 77 1012.9
20191021182510 68 71 3.0 7.0 0.00 0.00 0.00 77 1013.0
20191021182456 68 78 4.0 7.0 0.00 0.00 0.00 77 1012.8
20191021182406 68 82 3.0 7.0 0.00 0.00 0.00 77 1012.9
20191021182304 68 72 2.0 7.0 0.00 0.00 0.00 77 1012.9
20191021182200 68 74 4.0 7.0 0.00 0.00 0.00 77 1012.8
20191021182058 68 98 4.0 7.0 0.00 0.00 0.00 77 1012.8
20191021181959 68 66 3.0 7.0 0.00 0.00 0.00 77 1012.8
20191021181845 68 71 2.0 7.0 0.00 0.00 0.00 77 1012.9
20191021181741 68 118 3.0 7.0 0.00 0.00 0.00 77 1012.9
20191021181639 69 139 1.0 7.0 0.00 0.00 0.00 77 1012.8
20191021181535 69 48 0.0 7.0 0.00 0.00 0.00 77 1013.0
20191021181454 69 76 1.0 7.0 0.00 0.00 0.00 77 1012.8
20191021181433 69 50 3.0 7.0 0.00 0.00 0.00 77 1012.8
20191021181330 69 81 3.0 7.0 0.00 0.00 0.00 77 1012.6
20191021181227 69 60 2.0 7.0 0.00 0.00 0.00 77 1012.8
20191021181124 69 97 3.0 7.0 0.00 0.00 0.00 77 1012.9
20191021181014 69 104 2.0 7.0 0.00 0.00 0.00 77 1013.0
20191021180955 69 67 0.0 7.0 0.00 0.00 0.00 77 1012.8
20191021180910 69 59 1.0 7.0 0.00 0.00 0.00 77 1012.8
20191021180808 68 40 2.0 7.0 0.00 0.00 0.00 77 1012.9
20191021180705 68 80 2.0 7.0 0.00 0.00 0.00 77 1013.2
20191021180602 68 67 1.0 7.0 0.00 0.00 0.00 78 1012.7
20191021180500 68 42 1.0 7.0 0.00 0.00 0.00 78 1013.0
20191021180453 68 64 2.0 7.0 0.00 0.00 0.00 78 1013.0
20191021180356 68 111 2.0 7.0 0.00 0.00 0.00 78 1013.1
20191021180245 68 71 3.0 7.0 0.00 0.00 0.00 78 1013.0
20191021180142 68 109 2.0 7.0 0.00 0.00 0.00 78 1012.9
20191021180040 68 76 2.0 7.0 0.00 0.00 0.00 78 1012.8
20191021175954 68 116 0.0 7.0 0.00 0.00 0.00 78 1013.0
20191021175937 68 144 2.0 7.0 0.00 0.00 0.00 78 1013.0
20191021175833 68 45 1.0 7.0 0.00 0.00 0.00 78 1012.7
20191021175730 68 82 3.0 7.0 0.00 0.00 0.00 78 1012.9
20191021175620 68 85 2.0 7.0 0.00 0.00 0.00 77 1012.8
20191021175517 68 129 5.0 7.0 0.00 0.00 0.00 77 1012.7
20191021175443 68 274 2.0 6.0 0.00 0.00 0.00 78 1012.9
20191021175415 68 37 2.0 6.0 0.00 0.00 0.00 78 1012.9
20191021175312 68 83 3.0 6.0 0.00 0.00 0.00 78 1013.0
20191021175209 68 103 2.0 6.0 0.00 0.00 0.00 78 1012.9
20191021175059 68 103 1.0 6.0 0.00 0.00 0.00 78 1013.1
20191021174945 68 99 2.0 6.0 0.00 0.00 0.00 78 1013.0
20191021174855 68 65 2.0 6.0 0.00 0.00 0.00 78 1012.9
20191021174749 68 77 2.0 6.0 0.00 0.00 0.00 78 1013.1
20191021174646 68 87 1.0 6.0 0.00 0.00 0.00 78 1013.1
20191021174544 68 45 1.0 6.0 0.00 0.00 0.00 78 1013.1
20191021174444 68 77 4.0 6.0 0.00 0.00 0.00 78 1012.9
20191021174338 68 106 2.0 6.0 0.00 0.00 0.00 78 1012.7
20191021174227 68 77 2.0 6.0 0.00 0.00 0.00 78 1013.2
20191021174125 68 36 2.0 6.0 0.00 0.00 0.00 78 1013.0
20191021174021 68 18 0.0 6.0 0.00 0.00 0.00 78 1012.9
20191021173942 68 110 3.0 6.0 0.00 0.00 0.00 78 1012.8
20191021173919 68 116 2.0 6.0 0.00 0.00 0.00 78 1012.8
20191021173815 68 94 2.0 6.0 0.00 0.00 0.00 78 1013.0
20191021173712 68 93 2.0 6.0 0.00 0.00 0.00 78 1013.1
20191021173609 68 0 0.0 6.0 0.00 0.00 0.00 78 1012.9
20191021173507 68 74 1.0 6.0 0.00 0.00 0.00 78 1012.8
20191021173425 68 64 4.0 6.0 0.00 0.00 0.00 78 1012.9
20191021173404 68 126 2.0 6.0 0.00 0.00 0.00 78 1012.9
20191021173254 68 89 2.0 6.0 0.00 0.00 0.00 78 1013.1
20191021173150 68 110 2.0 7.0 0.00 0.00 0.00 78 1013.0
20191021173048 68 116 3.0 7.0 0.00 0.00 0.00 78 1013.3
20191021172945 68 112 2.0 7.0 0.00 0.00 0.00 77 1012.9
20191021172927 68 92 4.0 7.0 0.00 0.00 0.00 77 1012.9
20191021172842 68 75 1.0 7.0 0.00 0.00 0.00 77 1013.1
20191021172739 69 134 2.0 7.0 0.00 0.00 0.00 77 1013.1
20191021172636 69 77 1.0 7.0 0.00 0.00 0.00 77 1012.9
20191021172533 68 87 2.0 7.0 0.00 0.00 0.00 77 1013.2
20191021172425 68 84 2.0 7.0 0.00 0.00 0.00 77 1013.1
20191021172319 68 89 3.0 7.0 0.00 0.00 0.00 77 1013.2
20191021172216 68 56 3.0 7.0 0.00 0.00 0.00 77 1013.0
20191021172106 68 81 0.0 4.0 0.00 0.00 0.00 77 1013.0
20191021172004 68 98 1.0 4.0 0.00 0.00 0.00 77 1013.2
20191021171924 68 3 1.0 4.0 0.00 0.00 0.00 77 1013.2
20191021171901 68 55 1.0 4.0 0.00 0.00 0.00 77 1013.2
20191021171758 68 115 0.0 4.0 0.00 0.00 0.00 77 1013.1
20191021171655 68 2 1.0 4.0 0.00 0.00 0.00 77 1012.9
20191021171553 68 95 2.0 4.0 0.00 0.00 0.00 77 1013.1
20191021171449 68 102 1.0 4.0 0.00 0.00 0.00 77 1013.0
20191021171414 68 102 3.0 4.0 0.00 0.00 0.00 77 1013.0
20191021171345 68 30 3.0 4.0 0.00 0.00 0.00 77 1013.2
20191021171243 68 65 2.0 4.0 0.00 0.00 0.00 77 1013.2
20191021171139 68 13 1.0 4.0 0.00 0.00 0.00 77 1013.1
20191021171030 68 61 0.0 4.0 0.00 0.00 0.00 77 1013.1
20191021170927 68 33 0.0 4.0 0.00 0.00 0.00 77 1013.4
20191021170906 68 30 1.0 4.0 0.00 0.00 0.00 77 1013.4
20191021170824 68 21 2.0 4.0 0.00 0.00 0.00 77 1013.2
20191021170721 68 69 2.0 4.0 0.00 0.00 0.00 77 1013.3
20191021170618 68 37 1.0 4.0 0.00 0.00 0.00 77 1013.4
20191021170514 68 34 3.0 4.0 0.00 0.00 0.00 77 1013.2
20191021170406 68 5 1.0 6.0 0.00 0.00 0.00 77 1013.4
20191021170301 68 24 1.0 6.0 0.00 0.00 0.00 77 1013.4
20191021170159 68 41 1.0 6.0 0.00 0.00 0.00 77 1013.3
20191021170056 68 46 1.0 6.0 0.00 0.00 0.00 77 1013.4
20191021165953 69 20 3.0 6.0 0.00 0.00 0.00 77 1013.3
20191021165905 69 9 1.0 6.0 0.00 0.00 0.00 77 1013.3
20191021165850 69 25 1.0 6.0 0.00 0.00 0.00 77 1013.2
20191021165746 69 76 3.0 6.0 0.00 0.00 0.00 77 1013.4
20191021165644 69 356 1.0 6.0 0.00 0.00 0.00 77 1013.3
20191021165541 69 358 0.0 6.0 0.00 0.00 0.00 77 1013.3
20191021165431 69 105 3.0 6.0 0.00 0.00 0.00 77 1013.2
20191021165403 69 47 1.0 6.0 0.00 0.00 0.00 77 1013.2
20191021165328 69 40 2.0 6.0 0.00 0.00 0.00 77 1013.4
20191021165225 69 14 1.0 6.0 0.00 0.00 0.00 77 1013.3
20191021165122 69 45 2.0 6.0 0.00 0.00 0.00 77 1013.5
20191021165019 69 43 3.0 6.0 0.00 0.00 0.00 77 1013.3
20191021164918 69 66 1.0 6.0 0.00 0.00 0.00 77 1013.3
20191021164856 69 69 2.0 6.0 0.00 0.00 0.00 77 1013.3
20191021164806 69 64 2.0 6.0 0.00 0.00 0.00 77 1013.3
20191021164702 69 78 2.0 6.0 0.00 0.00 0.00 77 1013.4
20191021164600 69 55 0.0 6.0 0.00 0.00 0.00 77 1013.5